KC5DAQ-24 Weather Reports


Display with metric or nautical units.
time (UTC)temp
F
wind
direction
speed
MPH
gust
MPH
rain 1hr
in
rain 24hr
in
rain mn
in
humidity
%
barometer
mb
20220525183906 79 320 2.0 7.0 0.00 0.80 0.80 66 1010.2
20220525183808 79 296 3.0 7.0 0.00 0.80 0.80 64 1010.2
20220525183706 79 292 3.0 7.0 0.00 0.80 0.80 64 1010.2
20220525183609 79 286 2.0 7.0 0.00 0.80 0.80 65 1010.2
20220525183507 79 271 1.0 7.0 0.00 0.80 0.80 66 1010.2
20220525183408 79 13 2.0 7.0 0.00 0.80 0.80 65 1010.1
20220525183307 79 309 2.0 7.0 0.00 0.80 0.80 66 1010.2
20220525183206 79 300 3.0 7.0 0.00 0.80 0.80 66 1010.1
20220525183106 79 283 3.0 7.0 0.00 0.80 0.80 66 1010.2
20220525183006 79 319 1.0 4.0 0.00 0.80 0.80 65 1010.2
20220525182909 79 255 1.0 4.0 0.00 0.80 0.80 67 1010.1
20220525182806 78 243 2.0 5.0 0.00 0.80 0.80 65 1010.2
20220525182706 78 241 2.0 9.0 0.00 0.80 0.80 67 1010.2
20220525182606 78 276 1.0 9.0 0.00 0.80 0.80 66 1010.1
20220525182508 78 271 1.0 9.0 0.00 0.80 0.80 68 1010.2
20220525182407 78 313 0.0 9.0 0.00 0.80 0.80 69 1010.2
20220525182308 77 0 0.0 9.0 0.00 0.80 0.80 68 1010.2
20220525182206 77 286 1.0 9.0 0.00 0.80 0.80 68 1010.2
20220525182110 77 271 2.0 9.0 0.00 0.80 0.80 67 1010.2
20220525182006 77 281 5.0 11.0 0.00 0.80 0.80 67 1010.2
20220525181906 77 317 6.0 11.0 0.00 0.80 0.80 67 1010.2
20220525181806 77 274 4.0 11.0 0.00 0.80 0.80 67 1010.2
20220525181711 77 293 2.0 11.0 0.00 0.80 0.80 66 1010.2
20220525181605 77 289 1.0 11.0 0.00 0.80 0.80 67 1010.2
20220525181505 77 290 2.0 11.0 0.00 0.80 0.80 67 1010.2
20220525181406 77 289 4.0 11.0 0.00 0.80 0.80 68 1010.2
20220525181305 77 257 6.0 11.0 0.00 0.80 0.80 67 1010.2
20220525181206 77 264 6.0 11.0 0.00 0.80 0.80 67 1010.2
20220525181110 77 252 5.0 10.0 0.00 0.80 0.80 68 1010.2
20220525181007 77 289 5.0 10.0 0.00 0.80 0.80 68 1010.2
20220525180906 77 272 4.0 10.0 0.00 0.80 0.80 69 1010.2
20220525180806 77 290 6.0 10.0 0.00 0.80 0.80 67 1010.1
20220525180708 77 288 4.0 9.0 0.00 0.80 0.80 68 1010.2
20220525180611 77 258 2.0 6.0 0.00 0.80 0.80 68 1010.2
20220525180506 77 305 2.0 6.0 0.00 0.80 0.80 68 1010.2
20220525180405 77 306 4.0 6.0 0.00 0.80 0.80 68 1010.2
20220525180306 76 303 4.0 6.0 0.00 0.80 0.80 70 1010.2
20220525180205 76 282 3.0 6.0 0.00 0.80 0.80 71 1010.3
20220525180106 76 282 1.0 9.0 0.00 0.80 0.80 69 1010.3
20220525180006 76 283 1.0 9.0 0.00 0.80 0.80 69 1010.2
20220525175906 76 283 1.0 9.0 0.00 0.80 0.80 70 1010.2
20220525175805 76 20 0.0 9.0 0.00 0.80 0.80 71 1010.2
20220525175711 76 303 1.0 9.0 0.00 0.80 0.80 70 1010.2
20220525175605 76 62 2.0 9.0 0.00 0.80 0.80 71 1010.3
20220525175508 76 65 3.0 9.0 0.00 0.80 0.80 70 1010.3
20220525175406 76 268 4.0 9.0 0.00 0.80 0.80 69 1010.3
20220525175305 76 269 5.0 7.0 0.00 0.80 0.80 70 1010.3
20220525175205 76 293 3.0 7.0 0.00 0.80 0.80 71 1010.3
20220525175109 76 285 0.0 7.0 0.00 0.80 0.80 71 1010.3
20220525175007 76 41 0.0 7.0 0.00 0.80 0.80 72 1010.3
20220525174905 76 38 2.0 7.0 0.00 0.80 0.80 72 1010.2
20220525174805 76 345 2.0 7.0 0.00 0.80 0.80 71 1010.3
20220525174705 76 252 4.0 7.0 0.00 0.80 0.80 71 1010.2
20220525174605 76 281 4.0 7.0 0.00 0.80 0.80 71 1010.2
20220525174506 76 252 4.0 5.0 0.00 0.80 0.80 72 1010.2
20220525174405 76 266 4.0 5.0 0.00 0.80 0.80 72 1010.2
20220525174305 75 42 2.0 7.0 0.00 0.80 0.80 72 1010.1
20220525174207 75 42 2.0 7.0 0.00 0.80 0.80 72 1010.2
20220525174105 75 42 2.0 7.0 0.00 0.80 0.80 72 1010.2
20220525174006 75 44 2.0 7.0 0.00 0.80 0.80 72 1010.2
20220525173908 75 44 2.0 7.0 0.00 0.80 0.80 72 1010.2
20220525173804 75 281 1.0 7.0 0.00 0.80 0.80 72 1010.2
20220525173707 75 279 2.0 7.0 0.00 0.80 0.80 73 1010.2
20220525173606 75 276 3.0 7.0 0.00 0.80 0.80 71 1010.2
20220525173505 75 300 3.0 7.0 0.00 0.80 0.80 72 1010.3
20220525173405 75 288 4.0 7.0 0.00 0.80 0.80 71 1010.2
20220525173305 75 313 3.0 5.0 0.00 0.80 0.80 72 1010.2
20220525173204 75 281 1.0 6.0 0.00 0.80 0.80 72 1010.1
20220525173105 75 0 1.0 6.0 0.00 0.80 0.80 72 1010.1
20220525173004 75 0 1.0 6.0 0.00 0.80 0.80 73 1010.1
20220525172905 75 0 1.0 6.0 0.00 0.80 0.80 73 1010.1
20220525172804 75 0 2.0 6.0 0.00 0.80 0.80 73 1010.1
20220525172704 75 269 2.0 6.0 0.00 0.80 0.80 73 1010.0
20220525172604 75 0 1.0 9.0 0.00 0.80 0.80 73 1010.0
20220525172501 75 0 3.0 9.0 0.00 0.80 0.80 72 1010.0
20220525172358 75 299 4.0 9.0 0.00 0.80 0.80 73 1009.9
20220525172250 75 0 2.0 9.0 0.00 0.80 0.80 75 1010.0
20220525172148 75 0 0.0 9.0 0.00 0.80 0.80 74 1010.0
20220525172049 75 0 1.0 9.0 0.00 0.80 0.80 74 1009.9
20220525171947 75 0 1.0 9.0 0.00 0.80 0.80 73 1010.0
20220525171847 75 0 1.0 9.0 0.00 0.80 0.80 76 1009.9
20220525171743 75 0 4.0 9.0 0.00 0.80 0.80 74 1010.0
20220525171641 75 0 6.0 9.0 0.00 0.80 0.80 74 1009.9
20220525171544 75 0 4.0 7.0 0.00 0.80 0.80 75 1009.9
20220525171442 74 0 4.0 7.0 0.00 0.80 0.80 75 1009.9
20220525171337 74 0 2.0 10.0 0.00 0.80 0.80 74 1009.9
20220525171236 74 0 1.0 10.0 0.00 0.80 0.80 74 1009.8
20220525171134 74 0 0.0 10.0 0.00 0.80 0.80 75 1009.8
20220525171033 74 0 0.0 10.0 0.00 0.80 0.80 76 1009.8
20220525170934 74 0 1.0 10.0 0.00 0.80 0.80 75 1009.9
20220525170837 74 0 1.0 10.0 0.00 0.80 0.80 75 1009.8
20220525170733 74 0 1.0 10.0 0.00 0.80 0.80 75 1009.8
20220525170635 74 0 3.0 10.0 0.00 0.80 0.80 74 1009.7
20220525170534 74 0 6.0 10.0 0.00 0.80 0.80 74 1009.8
20220525170434 74 0 6.0 10.0 0.00 0.80 0.80 75 1009.7
20220525170333 74 0 3.0 6.0 0.01 0.80 0.80 76 1009.8
20220525170230 74 0 2.0 6.0 0.01 0.80 0.80 75 1009.7
20220525170128 74 0 1.0 6.0 0.01 0.80 0.80 76 1009.6
20220525170026 74 0 1.0 6.0 0.01 0.80 0.80 75 1009.6
20220525165926 74 0 1.0 6.0 0.01 0.80 0.80 76 1009.6
20220525165825 73 0 1.0 6.0 0.01 0.80 0.80 75 1009.6
20220525165725 73 0 2.0 7.0 0.01 0.81 0.80 75 1009.6
20220525165622 73 0 3.0 7.0 0.01 0.81 0.80 75 1009.7
20220525165520 73 0 2.0 7.0 0.01 0.81 0.80 76 1009.7
20220525165419 73 0 2.0 7.0 0.01 0.81 0.80 76 1009.6
20220525165316 73 0 3.0 7.0 0.01 0.81 0.80 75 1009.6
20220525165216 73 0 3.0 7.0 0.01 0.81 0.80 76 1009.6
20220525165114 73 0 3.0 7.0 0.01 0.81 0.80 75 1009.5
20220525165012 73 0 4.0 7.0 0.01 0.81 0.80 75 1009.6
20220525164912 73 0 4.0 7.0 0.01 0.81 0.80 75 1009.5
20220525164808 73 0 2.0 7.0 0.01 0.82 0.80 75 1009.5
20220525164709 73 0 1.0 7.0 0.01 0.82 0.80 76 1009.5
20220525164605 73 0 3.0 7.0 0.01 0.82 0.80 75 1009.5
20220525164507 73 0 4.0 7.0 0.01 0.82 0.80 76 1009.5
20220525164405 73 0 3.0 7.0 0.01 0.82 0.80 76 1009.5
20220525164305 73 0 3.0 7.0 0.01 0.82 0.80 76 1009.5
20220525164206 73 0 3.0 7.0 0.01 0.82 0.80 76 1009.5
20220525164105 73 0 4.0 7.0 0.01 0.82 0.80 75 1009.5
20220525164004 73 0 3.0 6.0 0.01 0.82 0.80 75 1009.4
20220525163907 73 0 3.0 6.0 0.01 0.82 0.80 76 1009.5
20220525163805 73 0 2.0 6.0 0.01 0.82 0.80 76 1009.5
20220525163705 73 0 1.0 7.0 0.01 0.83 0.80 76 1009.4
20220525163604 73 0 0.0 7.0 0.01 0.83 0.80 77 1009.5
20220525163505 73 0 0.0 9.0 0.01 0.83 0.80 78 1009.5
20220525163409 73 0 0.0 9.0 0.01 0.83 0.80 78 1009.5
20220525163306 72 0 1.0 9.0 0.01 0.83 0.80 79 1009.4
20220525163205 72 0 2.0 9.0 0.01 0.83 0.80 78 1009.4
20220525163107 72 0 3.0 9.0 0.01 0.84 0.80 78 1009.5
20220525163005 72 0 4.0 9.0 0.01 0.84 0.80 77 1009.4
20220525162904 72 0 4.0 9.0 0.01 0.84 0.80 77 1009.4
20220525162806 72 0 4.0 9.0 0.01 0.84 0.80 77 1009.4
20220525162704 72 0 3.0 5.0 0.01 0.87 0.80 77 1009.3
20220525162604 72 0 3.0 4.0 0.01 0.87 0.80 77 1009.3
20220525162506 72 0 2.0 6.0 0.01 0.87 0.80 78 1009.3
20220525162405 72 0 2.0 9.0 0.01 0.87 0.80 79 1009.3
20220525162307 72 0 2.0 9.0 0.01 0.87 0.80 79 1009.3
20220525162205 72 0 1.0 9.0 0.01 0.87 0.80 80 1009.3
20220525162104 72 0 1.0 9.0 0.01 0.87 0.80 80 1009.2
20220525162008 72 0 1.0 9.0 0.01 0.88 0.80 80 1009.2
20220525161907 71 0 1.0 9.0 0.01 0.88 0.80 80 1009.2
20220525161806 71 0 2.0 9.0 0.01 0.88 0.80 80 1009.2
20220525161706 71 0 5.0 9.0 0.01 0.88 0.80 79 1009.3
20220525161604 71 0 6.0 6.0 0.01 0.88 0.80 80 1009.2
20220525161506 71 0 4.0 6.0 0.01 0.88 0.80 80 1009.2
20220525161404 71 0 3.0 6.0 0.01 0.88 0.80 80 1009.2
20220525161307 71 0 2.0 10.0 0.01 0.88 0.80 80 1009.2
20220525161204 71 0 3.0 10.0 0.01 0.88 0.80 79 1009.2
20220525161104 71 0 2.0 10.0 0.01 0.89 0.80 79 1009.1
20220525161008 71 0 2.0 10.0 0.01 0.90 0.80 80 1009.1
20220525160904 71 0 3.0 10.0 0.01 0.91 0.80 80 1009.1
20220525160804 71 0 3.0 10.0 0.01 0.91 0.80 80 1009.1
20220525160705 71 0 3.0 10.0 0.01 0.92 0.80 80 1009.0
20220525160605 71 0 4.0 10.0 0.01 0.94 0.80 80 1008.9
20220525160504 71 0 4.0 9.0 0.00 0.95 0.80 81 1009.0
20220525160404 71 0 4.0 7.0 0.00 0.97 0.80 81 1009.0
20220525160305 71 0 5.0 6.0 0.00 0.98 0.80 81 1009.0
20220525160204 71 0 3.0 4.0 0.00 0.98 0.80 80 1009.0
20220525160104 71 0 1.0 4.0 0.00 0.98 0.80 81 1009.0
20220525160002 71 0 1.0 4.0 0.00 0.99 0.80 81 1009.0
20220525155907 71 0 1.0 6.0 0.00 1.01 0.80 81 1009.1
20220525155802 71 0 1.0 6.0 0.00 1.02 0.80 81 1009.1
20220525155703 71 0 1.0 6.0 0.00 1.02 0.80 81 1009.1
20220525155605 71 0 1.0 6.0 0.00 1.02 0.80 81 1009.0
20220525155509 71 0 1.0 6.0 0.00 1.02 0.80 81 1009.0
20220525155403 71 0 0.0 6.0 0.00 1.02 0.80 81 1008.9
20220525155302 71 0 1.0 6.0 0.00 1.02 0.80 82 1008.9
20220525155204 71 0 1.0 6.0 0.00 1.02 0.80 82 1008.9
20220525155104 71 0 1.0 6.0 0.00 1.02 0.80 83 1008.9
20220525155005 71 0 1.0 6.0 0.00 1.02 0.80 82 1008.9
20220525154903 71 0 0.0 6.0 0.00 1.02 0.80 83 1008.9
20220525154803 71 0 0.0 6.0 0.00 1.02 0.80 83 1009.0
20220525154703 71 0 0.0 6.0 0.00 1.02 0.80 83 1009.0
20220525154603 71 0 1.0 6.0 0.00 1.02 0.80 83 1009.0
20220525154504 71 0 1.0 6.0 0.00 1.02 0.80 83 1009.0
20220525154404 71 0 0.0 4.0 0.00 1.02 0.80 84 1009.0
20220525154302 70 0 0.0 6.0 0.00 1.02 0.80 84 1009.0
20220525154204 70 0 0.0 6.0 0.00 1.02 0.80 84 1008.9
20220525154102 70 0 0.0 6.0 0.00 1.02 0.80 84 1008.9
20220525154003 70 0 0.0 6.0 0.00 1.02 0.80 84 1008.9
20220525153904 70 0 1.0 6.0 0.00 1.02 0.80 84 1009.0
20220525153803 70 0 0.0 6.0 0.00 1.02 0.80 84 1008.9
20220525153702 70 0 1.0 6.0 0.00 1.02 0.80 84 1008.8
20220525153602 70 0 1.0 6.0 0.00 1.02 0.80 84 1008.8
20220525153504 70 0 2.0 6.0 0.00 1.02 0.80 84 1008.8
20220525153405 70 0 2.0 6.0 0.00 1.02 0.80 84 1008.8
20220525153302 70 0 1.0 6.0 0.00 1.02 0.80 84 1008.8
20220525153207 70 0 0.0 6.0 0.00 1.02 0.80 85 1008.9
20220525153102 70 0 0.0 6.0 0.00 1.02 0.80 85 1008.8
20220525152959 70 0 1.0 6.0 0.00 1.02 0.80 84 1008.8
20220525152901 70 0 1.0 6.0 0.00 1.02 0.80 85 1008.8
20220525152757 70 0 2.0 6.0 0.00 1.02 0.80 85 1008.8
20220525152657 70 0 2.0 6.0 0.00 1.02 0.80 85 1008.7
20220525152554 69 0 1.0 6.0 0.00 1.02 0.80 86 1008.7
20220525152450 69 0 1.0 6.0 0.00 1.02 0.80 85 1008.6
20220525152348 69 0 2.0 6.0 0.00 1.02 0.80 85 1008.7
20220525152250 69 0 3.0 6.0 0.00 1.02 0.80 85 1008.6
20220525152148 69 0 2.0 6.0 0.00 1.02 0.80 85 1008.7
20220525152045 69 0 2.0 6.0 0.00 1.02 0.80 85 1008.7
20220525151948 69 0 3.0 6.0 0.00 1.02 0.80 85 1008.7
20220525151844 69 0 2.0 6.0 0.00 1.02 0.80 86 1008.8
20220525151742 69 0 0.0 5.0 0.00 1.02 0.80 86 1008.7
20220525151640 69 0 0.0 5.0 0.00 1.02 0.80 86 1008.8
20220525151540 69 0 1.0 5.0 0.00 1.02 0.80 86 1008.7
20220525151437 69 0 2.0 5.0 0.00 1.02 0.80 86 1008.8
20220525151336 69 0 2.0 5.0 0.00 1.02 0.80 86 1008.7
20220525151239 69 0 2.0 5.0 0.00 1.02 0.80 87 1008.8
20220525151137 69 0 1.0 5.0 0.00 1.02 0.80 87 1008.7
20220525151037 69 0 2.0 5.0 0.00 1.02 0.80 87 1008.8
20220525150928 69 79 1.0 4.0 0.00 1.02 0.80 87 1008.7
20220525150826 69 0 0.0 4.0 0.00 1.02 0.80 87 1008.8
20220525150726 69 0 1.0 5.0 0.00 1.02 0.80 87 1008.8
20220525150623 69 293 1.0 5.0 0.00 1.02 0.80 87 1008.7
20220525150522 69 0 0.0 5.0 0.00 1.02 0.80 88 1008.7
20220525150418 69 0 0.0 5.0 0.00 1.02 0.80 87 1008.7
20220525150317 69 298 1.0 5.0 0.00 1.02 0.80 87 1008.8
20220525150215 69 0 1.0 5.0 0.00 1.02 0.80 87 1008.7
20220525150114 69 0 0.0 5.0 0.00 1.02 0.80 88 1008.8
20220525150014 69 0 1.0 5.0 0.00 1.02 0.80 88 1008.8
20220525145913 69 344 1.0 5.0 0.00 1.02 0.80 88 1008.8
20220525145810 69 347 0.0 2.0 0.00 1.02 0.80 88 1008.8
20220525145707 69 0 0.0 2.0 0.00 1.02 0.80 88 1008.6
20220525145606 69 0 0.0 1.0 0.00 1.02 0.80 88 1008.6
20220525145505 69 0 0.0 3.0 0.00 1.02 0.80 88 1008.6
20220525145404 69 0 0.0 3.0 0.00 1.02 0.80 88 1008.6
20220525145304 69 0 0.0 4.0 0.00 1.02 0.80 88 1008.6
20220525145204 69 0 0.0 4.0 0.00 1.02 0.80 89 1008.5
20220525145106 69 0 0.0 5.0 0.00 1.02 0.80 88 1008.5
20220525145004 69 0 0.0 5.0 0.00 1.02 0.80 89 1008.5
20220525144908 68 0 0.0 5.0 0.00 1.02 0.80 88 1008.6
20220525144805 68 295 0.0 5.0 0.00 1.02 0.80 88 1008.5
20220525144704 68 296 1.0 5.0 0.00 1.02 0.80 88 1008.5
20220525144607 68 286 2.0 5.0 0.00 1.02 0.80 88 1008.5
20220525144504 68 0 1.0 5.0 0.00 1.02 0.80 88 1008.5
20220525144404 68 0 1.0 5.0 0.00 1.02 0.80 89 1008.4
20220525144304 68 0 1.0 5.0 0.00 1.02 0.80 89 1008.4
20220525144205 68 0 0.0 3.0 0.00 1.02 0.80 89 1008.4
20220525144105 68 27 0.0 3.0 0.00 1.02 0.80 89 1008.3
20220525144006 68 18 1.0 3.0 0.00 1.02 0.80 89 1008.5
20220525143906 68 25 1.0 3.0 0.00 1.02 0.80 89 1008.4
20220525143805 68 299 1.0 4.0 0.00 1.02 0.80 89 1008.4
20220525143706 68 347 0.0 4.0 0.00 1.02 0.80 89 1008.4
20220525143607 68 337 0.0 5.0 0.00 1.02 0.80 89 1008.4
20220525143506 68 290 0.0 5.0 0.00 1.02 0.80 90 1008.4
20220525143404 68 276 1.0 5.0 0.00 1.02 0.80 90 1008.4
20220525143305 68 0 1.0 5.0 0.00 1.02 0.80 90 1008.5
20220525143208 68 300 1.0 5.0 0.00 1.02 0.80 90 1008.4
20220525143106 68 281 1.0 5.0 0.00 1.02 0.80 90 1008.4
20220525143010 67 281 1.0 5.0 0.00 1.02 0.80 90 1008.4
20220525142904 67 0 2.0 5.0 0.00 1.02 0.80 90 1008.4
20220525142805 67 292 2.0 5.0 0.00 1.02 0.80 90 1008.5
20220525142705 67 286 1.0 4.0 0.00 1.02 0.80 90 1008.3
20220525142606 67 286 0.0 4.0 0.00 1.02 0.80 90 1008.3
20220525142507 67 0 0.0 4.0 0.00 1.02 0.80 90 1008.2
20220525142405 67 290 0.0 4.0 0.00 1.02 0.80 90 1008.3
20220525142305 67 293 0.0 4.0 0.00 1.02 0.80 91 1008.1
20220525142206 67 293 1.0 5.0 0.00 1.02 0.80 91 1008.1
20220525142107 67 0 2.0 5.0 0.00 1.02 0.80 91 1008.2
20220525142008 67 0 1.0 5.0 0.00 1.02 0.80 91 1008.4
20220525141904 67 23 0.0 5.0 0.00 1.02 0.80 90 1008.2
20220525141804 67 286 0.0 5.0 0.00 1.02 0.80 91 1008.1
20220525141705 67 288 0.0 5.0 0.00 1.02 0.80 91 1008.2
20220525141604 67 286 0.0 5.0 0.00 1.02 0.80 91 1008.4
20220525141504 67 285 2.0 5.0 0.00 1.02 0.80 91 1008.6
20220525141406 67 286 2.0 5.0 0.00 1.02 0.80 91 1008.7
20220525141304 67 296 1.0 3.0 0.00 1.02 0.80 91 1008.6
20220525141204 67 295 1.0 3.0 0.00 1.02 0.80 91 1008.5
20220525141106 67 0 1.0 5.0 0.00 1.02 0.80 91 1008.6
20220525141004 67 290 2.0 5.0 0.00 1.02 0.80 91 1008.7
20220525140904 67 0 1.0 6.0 0.00 1.02 0.80 91 1008.7
20220525140804 67 302 0.0 6.0 0.00 1.02 0.80 91 1008.7
20220525140704 67 0 0.0 6.0 0.00 1.02 0.80 91 1008.4
20220525140604 67 302 0.0 6.0 0.00 1.02 0.80 91 1008.3
20220525140504 67 0 0.0 6.0 0.00 1.02 0.80 92 1008.2
20220525140405 67 302 1.0 6.0 0.00 1.02 0.80 91 1008.2
20220525140304 67 302 2.0 6.0 0.00 1.02 0.80 91 1008.2
20220525140205 67 282 3.0 6.0 0.00 1.02 0.80 91 1008.2
20220525140104 67 0 4.0 6.0 0.00 1.02 0.80 91 1008.1
20220525140005 67 0 2.0 4.0 0.00 1.02 0.80 91 1008.0
20220525135905 67 0 1.0 4.0 0.00 1.02 0.80 91 1007.8
20220525135807 67 303 1.0 4.0 0.00 1.02 0.80 91 1007.7
20220525135704 67 288 0.0 4.0 0.00 1.02 0.80 92 1007.7
20220525135601 67 285 0.0 4.0 0.00 1.02 0.80 92 1007.8
20220525135500 67 286 1.0 4.0 0.00 1.02 0.80 92 1007.9
20220525135401 67 278 1.0 4.0 0.00 1.02 0.80 91 1007.9
20220525135305 67 278 1.0 4.0 0.00 1.02 0.80 92 1007.9
20220525135200 67 278 1.0 2.0 0.00 1.02 0.80 92 1007.9
20220525135100 66 283 0.0 0.0 0.00 1.02 0.80 92 1007.9
20220525135000 66 302 0.0 0.0 0.00 1.02 0.80 92 1007.9
20220525134900 66 0 0.0 0.0 0.00 1.02 0.80 92 1007.9
20220525134759 66 0 0.0 0.0 0.00 1.02 0.80 92 1007.9
20220525134701 66 310 0.0 0.0 0.00 1.02 0.80 92 1008.0
20220525134601 66 343 0.0 0.0 0.00 1.02 0.80 92 1007.9
20220525134500 66 343 0.0 4.0 0.00 1.02 0.80 92 1007.9
20220525134401 66 0 0.0 5.0 0.00 1.02 0.80 91 1007.8
20220525134259 66 343 0.0 5.0 0.00 1.02 0.80 91 1007.7
20220525134204 66 343 0.0 5.0 0.00 1.02 0.80 92 1007.7
20220525134101 66 343 0.0 5.0 0.00 1.02 0.80 92 1007.7
20220525133959 66 343 0.0 5.0 0.00 1.02 0.80 91 1007.7
20220525133900 66 0 0.0 5.0 0.00 1.02 0.80 92 1007.8
20220525133800 66 306 0.0 5.0 0.00 1.02 0.80 92 1008.0
20220525133700 66 307 1.0 5.0 0.00 1.02 0.80 92 1008.3
20220525133601 66 0 2.0 5.0 0.00 1.02 0.80 92 1008.5
20220525133459 66 0 2.0 3.0 0.00 1.02 0.80 92 1008.6
20220525133404 66 298 0.0 3.0 0.00 1.02 0.80 92 1008.8
20220525133259 66 0 4.0 7.0 0.00 1.02 0.80 92 1008.8
20220525133200 66 0 4.0 7.0 0.00 1.02 0.80 92 1008.8
20220525133100 66 0 4.0 7.0 0.00 1.02 0.80 92 1008.8
20220525132958 66 0 4.0 7.0 0.00 1.02 0.80 92 1008.7
20220525132858 66 0 4.0 7.0 0.00 1.02 0.80 92 1008.6
20220525132757 66 0 4.0 7.0 0.00 1.02 0.80 92 1008.4
20220525132700 66 0 4.0 7.0 0.00 1.02 0.80 92 1008.2
20220525132602 66 0 4.0 7.0 0.00 1.02 0.80 92 1007.9
20220525132458 66 282 4.0 7.0 0.00 1.02 0.80 92 1007.8
20220525132356 66 0 5.0 7.0 0.00 1.02 0.80 92 1007.7
20220525132257 66 0 4.0 7.0 0.00 1.02 0.80 92 1007.7
20220525132158 66 0 3.0 7.0 0.00 1.02 0.80 92 1007.6
20220525132056 66 0 1.0 7.0 0.00 1.02 0.80 93 1007.4
20220525131957 66 0 2.0 7.0 0.00 1.02 0.80 93 1006.9
20220525131858 66 0 3.0 7.0 0.00 1.02 0.80 93 1006.5
20220525131800 66 0 4.0 7.0 0.00 1.02 0.80 92 1006.3
20220525131656 66 0 4.0 7.0 0.00 1.02 0.80 92 1006.4
20220525131600 66 0 3.0 7.0 0.00 1.02 0.80 92 1006.7
20220525131456 66 0 3.0 7.0 0.00 1.02 0.80 92 1007.0
20220525131357 66 0 3.0 7.0 0.00 1.02 0.80 92 1007.3
20220525131257 66 0 3.0 7.0 0.00 1.02 0.80 92 1007.3
20220525131157 66 0 3.0 7.0 0.00 1.02 0.80 92 1007.6
20220525131057 66 0 2.0 7.0 0.00 1.02 0.80 92 1007.9
20220525130959 66 0 2.0 7.0 0.00 1.02 0.80 92 1008.1
20220525130857 66 0 1.0 7.0 0.00 1.02 0.80 92 1008.2
20220525130802 66 0 2.0 7.0 0.00 1.02 0.80 92 1008.3
20220525130658 66 0 5.0 7.0 0.00 1.02 0.80 92 1008.4
20220525130557 66 0 5.0 7.0 0.00 1.02 0.80 92 1008.4
20220525130458 66 0 4.0 6.0 0.00 1.02 0.80 92 1008.3
20220525130359 66 0 3.0 6.0 0.00 1.02 0.80 92 1008.1
20220525130258 66 0 3.0 6.0 0.00 1.02 0.80 92 1008.1
20220525130156 66 0 2.0 6.0 0.00 1.02 0.80 92 1008.2
20220525130057 66 0 1.0 6.0 0.00 1.02 0.80 92 1008.2
20220525125958 66 0 1.0 6.0 0.00 1.02 0.80 92 1008.2
20220525125859 66 0 2.0 6.0 0.00 1.02 0.80 92 1008.3
20220525125757 66 0 2.0 6.0 0.00 1.02 0.80 92 1008.1
20220525125656 66 0 3.0 6.0 0.00 1.02 0.80 92 1008.1
20220525125557 66 0 2.0 6.0 0.00 1.02 0.80 92 1007.9
20220525125504 66 0 3.0 5.0 0.00 1.02 0.80 92 1007.9
20220525125402 66 0 2.0 5.0 0.00 1.02 0.80 92 1007.9
20220525125256 66 0 3.0 4.0 0.00 1.02 0.80 92 1007.9
20220525125157 65 0 2.0 3.0 0.00 1.02 0.80 92 1007.8
20220525125058 65 0 1.0 3.0 0.00 1.02 0.80 92 1007.8
20220525124957 66 0 0.0 5.0 0.00 1.02 0.80 92 1007.8
20220525124856 65 0 0.0 5.0 0.00 1.02 0.80 92 1007.8
20220525124756 65 0 0.0 5.0 0.00 1.02 0.80 92 1007.8
20220525124658 66 0 1.0 5.0 0.00 1.02 0.80 92 1007.9
20220525124556 66 0 1.0 5.0 0.00 1.02 0.80 92 1007.9
20220525124456 66 0 0.0 5.0 0.00 1.02 0.80 92 1008.0
20220525124357 65 0 0.0 5.0 0.00 1.02 0.80 92 1008.1
20220525124256 65 0 0.0 5.0 0.00 1.02 0.80 92 1008.0
20220525124156 65 0 2.0 5.0 0.00 1.02 0.80 92 1008.0
20220525124103 65 0 3.0 5.0 0.00 1.02 0.80 92 1008.0
20220525123956 65 0 2.0 5.0 0.00 1.02 0.80 92 1008.0
20220525123900 65 0 2.0 5.0 0.00 1.02 0.80 92 1008.0
20220525123759 65 0 3.0 5.0 0.00 1.02 0.80 92 1008.0
20220525123657 65 0 2.0 4.0 0.00 1.02 0.80 92 1008.0
20220525123559 65 0 2.0 3.0 0.00 1.02 0.80 92 1008.0
20220525123500 65 0 2.0 6.0 0.00 1.02 0.80 92 1008.1
20220525123359 65 0 2.0 6.0 0.00 1.02 0.80 92 1008.2
20220525123309 65 0 0.0 6.0 0.00 1.02 0.80 92 1008.1
20220525123200 65 0 1.0 6.0 0.00 1.02 0.80 92 1008.0
20220525123058 65 0 1.0 6.0 0.00 1.02 0.80 92 1008.0
20220525123002 65 0 1.0 6.0 0.00 1.02 0.80 92 1008.2
20220525122900 65 0 1.0 6.0 0.00 1.02 0.80 92 1008.3
20220525122755 65 0 1.0 6.0 0.00 1.02 0.80 92 1008.2
20220525122656 65 0 3.0 6.0 0.00 1.02 0.80 92 1008.1
20220525122556 65 0 3.0 4.0 0.00 1.02 0.80 92 1008.1
20220525122456 65 0 1.0 2.0 0.00 1.02 0.80 92 1008.0
20220525122355 65 0 0.0 3.0 0.00 1.02 0.80 92 1008.0
20220525122300 65 0 0.0 3.0 0.00 1.02 0.80 93 1007.8
20220525122156 65 0 0.0 3.0 0.00 1.02 0.80 93 1007.7
20220525122055 65 0 0.0 4.0 0.00 1.02 0.80 92 1007.9
20220525121955 65 0 0.0 4.0 0.00 1.02 0.80 92 1007.8
20220525121855 65 0 0.0 4.0 0.00 1.02 0.80 93 1007.7
20220525121756 65 0 0.0 6.0 0.00 1.02 0.80 93 1007.7
20220525121655 65 0 1.0 9.0 0.00 1.02 0.80 93 1007.8
20220525121556 65 0 1.0 9.0 0.00 1.02 0.80 93 1007.7
20220525121456 65 0 1.0 9.0 0.00 1.02 0.80 93 1007.7
20220525121358 65 0 1.0 9.0 0.00 1.02 0.80 93 1007.7
20220525121256 65 0 2.0 9.0 0.00 1.02 0.80 93 1007.7
20220525121157 65 0 2.0 9.0 0.00 1.02 0.80 93 1007.7
20220525121055 65 0 2.0 9.0 0.00 1.02 0.80 93 1007.6
20220525121000 65 0 3.0 9.0 0.00 1.02 0.80 93 1007.6
20220525120856 65 0 4.0 9.0 0.00 1.02 0.80 93 1007.6
20220525120754 65 0 5.0 10.0 0.00 1.02 0.80 93 1007.5
20220525120655 65 0 5.0 10.0 0.00 1.02 0.80 93 1007.5
20220525120555 65 0 4.0 11.0 0.00 1.02 0.80 93 1007.4
20220525120456 65 0 3.0 11.0 0.00 1.02 0.80 93 1007.3
20220525120355 65 0 4.0 11.0 0.00 1.02 0.80 93 1007.2
20220525120256 65 0 4.0 11.0 0.00 1.02 0.80 93 1007.2
20220525120157 65 0 2.0 11.0 0.00 1.02 0.80 93 1007.2
20220525120055 65 0 1.0 11.0 0.00 1.02 0.80 93 1007.1
20220525115955 65 0 3.0 11.0 0.00 1.02 0.80 93 1007.0
20220525115855 65 0 6.0 11.0 0.00 1.02 0.80 93 1007.0
20220525115755 65 0 6.0 11.0 0.00 1.02 0.80 93 1007.0
20220525115657 65 0 6.0 10.0 0.00 1.02 0.80 93 1007.0
20220525115556 65 0 5.0 10.0 0.01 1.02 0.80 93 1006.9
20220525115456 65 0 5.0 10.0 0.01 1.02 0.80 93 1006.8
20220525115357 65 0 5.0 10.0 0.01 1.02 0.80 93 1006.8
20220525115255 65 0 6.0 10.0 0.01 1.02 0.80 93 1006.6
20220525115156 65 0 6.0 10.0 0.01 1.02 0.80 93 1006.6
20220525115055 65 0 5.0 10.0 0.01 1.02 0.80 93 1006.6
20220525114956 65 0 6.0 10.0 0.01 1.02 0.80 93 1006.6
20220525114848 65 0 6.0 9.0 0.01 1.02 0.80 93 1006.7
20220525114747 65 0 4.0 7.0 0.01 1.02 0.80 93 1006.7
20220525114644 65 0 4.0 11.0 0.01 1.02 0.80 93 1006.6
20220525114541 65 0 5.0 11.0 0.01 1.02 0.80 93 1006.6
20220525114440 65 0 5.0 11.0 0.01 1.02 0.80 93 1006.3
20220525114340 65 0 4.0 11.0 0.01 1.02 0.80 93 1006.0
20220525114236 64 0 4.0 11.0 0.01 1.02 0.80 93 1005.7
20220525114136 64 0 3.0 11.0 0.01 1.02 0.80 93 1005.4
20220525114034 64 0 3.0 11.0 0.01 1.02 0.80 93 1005.2
20220525113933 64 0 5.0 11.0 0.01 1.02 0.80 93 1004.9
20220525113834 64 0 4.0 11.0 0.01 1.02 0.80 93 1005.0
20220525113733 64 0 4.0 7.0 0.01 1.02 0.80 93 1005.0
20220525113633 64 0 3.0 7.0 0.01 1.02 0.80 93 1005.1
20220525113534 64 0 4.0 7.0 0.01 1.02 0.80 93 1005.2
20220525113433 64 0 4.0 7.0 0.01 1.02 0.80 93 1005.6
20220525113334 64 0 3.0 7.0 0.01 1.02 0.80 93 1005.9
20220525113233 64 0 2.0 6.0 0.01 1.02 0.80 93 1006.0
20220525113134 64 0 4.0 6.0 0.01 1.02 0.80 93 1005.9
20220525113033 64 0 4.0 6.0 0.01 1.02 0.80 93 1005.8
20220525112940 64 0 3.0 6.0 0.01 1.02 0.80 93 1005.8
20220525112837 64 0 3.0 9.0 0.01 1.02 0.80 93 1005.7
20220525112731 64 0 3.0 12.0 0.02 1.02 0.80 93 1005.7
20220525112628 64 0 3.0 12.0 0.02 1.02 0.80 93 1005.6
20220525112524 64 0 4.0 12.0 0.02 1.02 0.80 93 1005.6
20220525112423 64 0 4.0 13.0 0.02 1.02 0.80 93 1005.7
20220525112321 64 0 3.0 13.0 0.02 1.02 0.80 93 1005.8
20220525112220 64 0 2.0 15.0 0.02 1.02 0.80 93 1005.7
20220525112118 64 0 4.0 15.0 0.02 1.02 0.80 93 1005.4
20220525112017 64 0 5.0 15.0 0.02 1.02 0.80 93 1005.5
20220525111913 64 0 5.0 15.0 0.02 1.02 0.80 93 1005.6
20220525111811 64 0 5.0 15.0 0.02 1.02 0.80 93 1005.6
20220525111709 64 0 6.0 15.0 0.02 1.02 0.80 93 1005.6
20220525111615 64 0 7.0 15.0 0.02 1.02 0.80 93 1005.6
20220525111505 64 0 9.0 15.0 0.02 1.02 0.80 93 1005.7
20220525111404 64 0 10.0 13.0 0.02 1.02 0.80 93 1005.8
20220525111305 64 0 9.0 12.0 0.02 1.02 0.80 93 1005.9
20220525111204 64 0 8.0 12.0 0.02 1.02 0.80 93 1006.0
20220525111104 64 0 6.0 12.0 0.02 1.02 0.80 93 1006.0
20220525111004 64 0 6.0 12.0 0.02 1.02 0.80 93 1006.1
20220525110906 64 0 7.0 12.0 0.02 1.02 0.80 93 1006.3
20220525110804 64 0 8.0 12.0 0.02 1.02 0.80 93 1006.4
20220525110705 64 0 6.0 11.0 0.03 1.02 0.80 93 1006.5
20220525110609 64 0 6.0 11.0 0.03 1.02 0.80 93 1006.7
20220525110506 64 0 6.0 11.0 0.03 1.02 0.80 93 1006.7
20220525110356 64 0 5.0 11.0 0.03 1.02 0.80 93 1006.8
20220525110255 64 0 5.0 11.0 0.03 1.02 0.80 93 1006.9
20220525110154 64 0 5.0 9.0 0.03 1.02 0.80 93 1007.0
20220525110054 64 0 3.0 9.0 0.03 1.02 0.80 93 1007.0
20220525105954 64 0 3.0 9.0 0.03 1.02 0.80 93 1007.0
20220525105853 64 0 5.0 9.0 0.03 1.02 0.80 93 1007.1
20220525105755 64 0 5.0 11.0 0.03 1.02 0.80 93 1007.0
20220525105653 64 0 5.0 11.0 0.02 1.01 0.79 93 1006.9
20220525105553 64 0 4.0 11.0 0.02 1.01 0.79 93 1006.9
20220525105453 64 0 4.0 11.0 0.02 1.01 0.79 93 1006.9
20220525105355 64 0 4.0 11.0 0.03 1.01 0.79 93 1006.8
20220525105302 64 0 4.0 11.0 0.03 1.01 0.79 93 1006.6
20220525105153 64 0 4.0 11.0 0.03 1.01 0.79 93 1006.8
20220525105059 64 0 3.0 11.0 0.03 1.01 0.79 93 1006.8
20220525104956 64 0 4.0 11.0 0.03 1.01 0.79 93 1006.8
20220525104856 64 0 4.0 4.0 0.03 1.01 0.79 94 1007.0
20220525104753 64 0 4.0 4.0 0.03 1.01 0.79 93 1007.1
20220525104655 64 0 2.0 6.0 0.03 1.01 0.79 93 1007.2
20220525104554 64 0 2.0 6.0 0.03 1.01 0.79 93 1007.2
20220525104454 64 0 2.0 6.0 0.03 1.01 0.79 93 1007.3
20220525104356 64 0 2.0 7.0 0.03 1.01 0.79 93 1007.4
20220525104253 64 0 2.0 9.0 0.03 1.01 0.79 93 1007.5
20220525104153 64 0 2.0 9.0 0.03 1.01 0.79 94 1007.6
20220525104052 64 0 2.0 9.0 0.04 1.01 0.79 93 1007.6
20220525103956 64 0 1.0 9.0 0.04 1.01 0.79 94 1007.6
20220525103854 64 0 2.0 9.0 0.04 1.01 0.79 94 1007.5
20220525103753 64 0 3.0 9.0 0.04 1.01 0.79 94 1007.4
20220525103655 64 0 4.0 9.0 0.05 1.01 0.79 93 1007.2
20220525103554 64 0 5.0 9.0 0.05 1.01 0.79 93 1007.1
20220525103453 64 0 6.0 9.0 0.05 1.01 0.79 93 1006.9
20220525103352 64 0 4.0 10.0 0.05 1.01 0.79 93 1006.8
20220525103252 64 0 4.0 10.0 0.05 1.01 0.79 93 1007.0
20220525103156 64 0 4.0 10.0 0.05 1.01 0.79 93 1007.1
20220525103054 64 0 3.0 10.0 0.05 1.01 0.79 94 1007.2
20220525102952 64 0 3.0 10.0 0.05 1.01 0.79 93 1007.2
20220525102854 64 0 4.0 10.0 0.05 1.00 0.78 93 1007.3
20220525102753 64 0 6.0 10.0 0.05 1.00 0.78 93 1007.4
20220525102654 64 0 6.0 10.0 0.05 1.00 0.78 93 1007.5
20220525102554 64 0 6.0 10.0 0.05 1.00 0.78 93 1007.5
20220525102455 64 0 6.0 9.0 0.06 1.00 0.78 93 1007.5
20220525102352 65 0 6.0 9.0 0.06 1.00 0.78 93 1007.6
20220525102253 65 0 3.0 9.0 0.06 1.00 0.78 93 1007.8
20220525102152 64 0 1.0 9.0 0.06 1.00 0.78 93 1008.0
20220525102053 64 0 1.0 9.0 0.06 1.00 0.78 93 1008.2
20220525101952 64 0 2.0 9.0 0.06 1.00 0.78 93 1008.3
20220525101853 64 0 2.0 9.0 0.06 1.00 0.78 93 1008.3
20220525101757 64 0 4.0 9.0 0.06 1.00 0.78 93 1008.3
20220525101653 64 0 4.0 9.0 0.06 1.00 0.78 93 1008.4
20220525101552 65 0 4.0 6.0 0.06 0.99 0.77 93 1008.4
20220525101453 64 0 3.0 6.0 0.06 0.99 0.77 93 1008.3
20220525101351 64 0 3.0 6.0 0.06 0.99 0.77 93 1008.5
20220525101250 65 0 3.0 6.0 0.06 0.99 0.77 93 1008.5
20220525101149 65 0 3.0 6.0 0.06 0.99 0.77 93 1008.6
20220525101052 65 0 4.0 6.0 0.06 0.99 0.77 93 1008.7
20220525100946 65 0 3.0 6.0 0.06 0.99 0.77 93 1008.7
20220525100841 65 0 2.0 5.0 0.05 0.98 0.76 93 1008.9
20220525100742 65 0 1.0 5.0 0.05 0.98 0.76 93 1009.0
20220525100641 65 0 1.0 5.0 0.05 0.98 0.76 93 1009.1
20220525100536 65 0 2.0 5.0 0.05 0.98 0.76 93 1009.1
20220525100435 65 0 4.0 5.0 0.06 0.98 0.76 93 1009.2
20220525100335 65 0 3.0 5.0 0.06 0.98 0.76 93 1009.2
20220525100235 65 0 3.0 5.0 0.06 0.98 0.76 93 1009.3
20220525100134 65 0 3.0 5.0 0.06 0.98 0.76 93 1009.4
20220525100034 65 0 3.0 5.0 0.06 0.98 0.76 93 1009.5
20220525095927 65 0 2.0 5.0 0.06 0.98 0.76 93 1009.7
20220525095823 65 0 1.0 5.0 0.06 0.98 0.76 93 1009.8
20220525095725 65 0 2.0 5.0 0.06 0.98 0.76 93 1009.8
20220525095622 65 0 3.0 5.0 0.06 0.98 0.76 93 1009.9
20220525095520 65 0 2.0 5.0 0.06 0.98 0.76 93 1010.0
20220525095415 65 0 2.0 4.0 0.05 0.98 0.76 93 1010.0
20220525095314 65 0 2.0 4.0 0.05 0.98 0.76 93 1010.1
20220525095214 65 0 2.0 4.0 0.05 0.98 0.76 93 1010.3
20220525095105 65 0 1.0 3.0 0.05 0.98 0.76 93 1010.4
20220525095007 65 0 1.0 2.0 0.05 0.98 0.76 93 1010.5
20220525094906 65 0 1.0 2.0 0.05 0.98 0.76 93 1010.5
20220525094806 65 0 0.0 2.0 0.05 0.98 0.76 93 1010.6
20220525094705 65 0 0.0 2.0 0.05 0.98 0.76 93 1010.6
20220525094604 65 0 0.0 2.0 0.05 0.98 0.76 93 1010.6
20220525094505 65 0 0.0 4.0 0.05 0.98 0.76 93 1010.6
20220525094404 65 0 0.0 4.0 0.06 0.98 0.76 93 1010.6
20220525094306 65 0 0.0 4.0 0.06 0.98 0.76 93 1010.6
20220525094209 65 0 0.0 4.0 0.05 0.97 0.75 93 1010.7
20220525094103 65 0 0.0 4.0 0.06 0.97 0.75 93 1010.7
20220525094002 65 0 0.0 4.0 0.06 0.97 0.75 93 1010.8
20220525093900 65 0 0.0 4.0 0.06 0.97 0.75 93 1010.9
20220525093800 65 0 2.0 4.0 0.05 0.96 0.74 93 1011.0
20220525093659 65 0 2.0 3.0 0.05 0.96 0.74 93 1011.0
20220525093554 65 0 1.0 0.0 0.06 0.96 0.74 93 1011.0
20220525093453 65 0 0.0 1.0 0.06 0.96 0.74 93 1011.0
20220525093353 65 0 0.0 1.0 0.06 0.96 0.74 93 1011.0
20220525093253 65 0 0.0 1.0 0.06 0.96 0.74 93 1011.1
20220525093153 65 0 0.0 1.0 0.07 0.96 0.74 93 1011.0
20220525093051 65 0 0.0 1.0 0.08 0.96 0.74 93 1011.0
20220525092952 65 0 0.0 1.0 0.08 0.95 0.73 93 1011.0
20220525092854 65 0 0.0 1.0 0.09 0.95 0.73 93 1011.1
20220525092753 65 0 0.0 1.0 0.10 0.95 0.73 93 1011.1
20220525092655 65 0 0.0 1.0 0.12 0.95 0.73 93 1011.0
20220525092552 65 0 0.0 3.0 0.12 0.94 0.72 93 1011.1
20220525092453 65 0 0.0 3.0 0.13 0.94 0.72 93 1011.0
20220525092354 65 0 0.0 3.0 0.14 0.94 0.72 93 1011.0
20220525092236 65 0 0.0 5.0 0.15 0.94 0.72 93 1010.9
20220525092136 65 0 0.0 5.0 0.15 0.94 0.72 93 1010.9
20220525092036 65 0 0.0 5.0 0.17 0.94 0.72 93 1010.8
20220525091934 65 0 0.0 5.0 0.17 0.94 0.72 93 1010.9
20220525091833 65 0 0.0 5.0 0.19 0.94 0.72 93 1010.9
20220525091735 65 0 1.0 5.0 0.21 0.94 0.72 93 1010.8
20220525091632 65 0 1.0 5.0 0.24 0.94 0.72 93 1010.9
20220525091534 65 0 1.0 5.0 0.26 0.94 0.72 93 1010.9
20220525091434 65 0 1.0 5.0 0.28 0.94 0.72 93 1010.9
20220525091335 65 0 1.0 4.0 0.30 0.94 0.72 93 1011.0
20220525091234 65 0 1.0 4.0 0.31 0.94 0.72 93 1011.0
20220525091135 65 0 1.0 4.0 0.32 0.94 0.72 93 1011.1
20220525091035 65 0 0.0 4.0 0.35 0.94 0.72 93 1011.0
20220525090934 65 0 1.0 4.0 0.36 0.94 0.72 93 1011.0
20220525090834 65 0 1.0 3.0 0.37 0.94 0.72 93 1011.0
20220525090733 65 0 1.0 3.0 0.39 0.94 0.72 93 1011.0
20220525090633 64 0 1.0 3.0 0.39 0.94 0.72 93 1010.9
20220525090533 65 0 1.0 5.0 0.40 0.93 0.71 93 1010.9
20220525090433 65 0 0.0 5.0 0.43 0.93 0.71 93 1010.8
20220525090335 64 0 1.0 5.0 0.46 0.93 0.71 93 1010.7
20220525090234 64 0 1.0 5.0 0.48 0.93 0.71 92 1010.6
20220525090132 65 0 1.0 5.0 0.49 0.93 0.71 92 1010.6
20220525090033 65 0 1.0 5.0 0.51 0.93 0.71 92 1010.4
20220525085935 65 0 1.0 5.0 0.52 0.93 0.71 92 1010.4
20220525085835 65 0 2.0 5.0 0.55 0.93 0.71 92 1010.3
20220525085733 65 0 2.0 12.0 0.59 0.93 0.71 92 1010.2
20220525085635 65 0 1.0 12.0 0.65 0.93 0.71 92 1010.1
20220525085536 65 0 1.0 12.0 0.69 0.93 0.71 92 1010.1
20220525085423 65 0 2.0 12.0 0.70 0.93 0.71 92 1010.1
20220525085319 65 0 2.0 12.0 0.71 0.93 0.71 92 1010.1
20220525085224 65 0 1.0 12.0 0.71 0.93 0.71 92 1010.0
20220525085116 65 0 2.0 12.0 0.71 0.93 0.71 92 1010.0
20220525085015 65 0 4.0 12.0 0.71 0.93 0.71 92 1009.9
20220525084913 65 0 4.0 12.0 0.71 0.93 0.71 92 1010.0
20220525084811 65 0 3.0 12.0 0.71 0.93 0.71 92 1010.0
20220525084710 65 0 4.0 12.0 0.71 0.93 0.71 92 1009.9
20220525084609 65 0 5.0 12.0 0.70 0.92 0.70 92 1010.0
20220525084506 65 0 5.0 12.0 0.70 0.92 0.70 92 1010.0
20220525084404 65 0 6.0 12.0 0.70 0.92 0.70 92 1010.1
20220525084309 65 0 4.0 14.0 0.70 0.92 0.70 92 1010.1
20220525084204 65 0 4.0 14.0 0.69 0.91 0.69 92 1010.0
20220525084104 65 0 4.0 14.0 0.69 0.91 0.69 92 1009.9
20220525084008 65 0 4.0 14.0 0.69 0.91 0.69 92 1009.9
20220525083904 65 0 4.0 21.0 0.69 0.91 0.69 92 1009.8
20220525083804 65 0 2.0 21.0 0.69 0.91 0.69 92 1009.8
20220525083705 65 0 2.0 21.0 0.69 0.91 0.69 92 1009.7
20220525083605 65 0 4.0 21.0 0.69 0.91 0.69 91 1009.7
20220525083504 65 0 6.0 21.0 0.68 0.90 0.68 91 1009.8
20220525083404 65 0 6.0 21.0 0.68 0.90 0.68 91 1009.9
20220525083303 65 0 7.0 21.0 0.67 0.89 0.67 91 1010.1
20220525083205 65 0 8.0 21.0 0.66 0.88 0.66 91 1010.1
20220525083106 65 0 9.0 21.0 0.65 0.87 0.65 91 1010.1
20220525083009 65 0 7.0 17.0 0.64 0.86 0.64 91 1010.2
20220525082907 65 0 8.0 17.0 0.63 0.85 0.63 91 1010.1
20220525082805 65 0 9.0 16.0 0.63 0.85 0.63 91 1010.1
20220525082705 65 0 7.0 13.0 0.61 0.83 0.61 91 1010.0
20220525082604 65 0 6.0 16.0 0.59 0.81 0.59 91 1010.2
20220525082504 65 0 7.0 16.0 0.58 0.80 0.58 91 1010.2
20220525082407 65 0 7.0 16.0 0.57 0.80 0.57 90 1010.4
20220525082305 65 0 7.0 16.0 0.57 0.80 0.57 90 1010.4
20220525082206 65 0 7.0 16.0 0.56 0.78 0.56 90 1010.6
20220525082102 65 0 6.0 16.0 0.55 0.77 0.55 90 1010.6
20220525081959 65 0 4.0 16.0 0.53 0.75 0.53 90 1010.8
20220525081903 65 0 7.0 16.0 0.50 0.72 0.50 89 1011.0
20220525081758 65 0 8.0 24.0 0.47 0.69 0.47 89 1011.1
20220525081653 65 0 6.0 24.0 0.46 0.68 0.46 89 1011.2
20220525081551 65 0 6.0 24.0 0.44 0.66 0.44 89 1010.9
20220525081451 66 0 4.0 24.0 0.42 0.64 0.42 88 1010.7
20220525081349 66 0 3.0 24.0 0.41 0.63 0.41 88 1010.4
20220525081252 66 0 5.0 24.0 0.39 0.61 0.39 88 1010.2
20220525081149 66 0 6.0 24.0 0.37 0.59 0.37 87 1010.1
20220525081049 66 0 7.0 24.0 0.35 0.57 0.35 87 1009.9
20220525080951 66 0 11.0 24.0 0.35 0.57 0.35 86 1009.8
20220525080850 67 0 9.0 21.0 0.33 0.55 0.33 86 1009.6
20220525080750 67 0 5.0 21.0 0.32 0.54 0.32 85 1009.4
20220525080650 67 0 7.0 21.0 0.31 0.53 0.31 85 1009.3
20220525080559 68 0 8.0 21.0 0.28 0.50 0.28 84 1009.3
20220525080457 68 283 9.0 30.0 0.25 0.47 0.25 84 1009.7
20220525080351 69 0 10.0 39.0 0.23 0.45 0.23 84 1009.6
20220525080250 69 0 6.0 39.0 0.22 0.44 0.22 83 1009.2
20220525080149 70 0 4.0 39.0 0.20 0.42 0.20 82 1009.1
20220525080049 71 0 7.0 39.0 0.19 0.41 0.19 81 1009.1
20220525075949 71 0 10.0 39.0 0.16 0.38 0.16 80 1009.2
20220525075850 72 0 11.0 39.0 0.12 0.34 0.12 80 1009.4
20220525075751 73 0 11.0 39.0 0.06 0.28 0.06 80 1009.6
20220525075650 74 0 17.0 39.0 0.02 0.24 0.02 81 1009.7
20220525075550 75 0 20.0 39.0 0.01 0.23 0.01 81 1009.7
20220525075452 76 0 15.0 19.0 0.00 0.22 0.00 84 1009.2
20220525075351 76 0 7.0 11.0 0.00 0.22 0.00 85 1009.1
20220525075250 76 0 4.0 11.0 0.00 0.22 0.00 85 1008.5
20220525075151 76 0 4.0 11.0 0.00 0.22 0.00 85 1008.2
20220525075051 76 0 6.0 11.0 0.00 0.22 0.00 85 1008.1
20220525074950 76 0 6.0 12.0 0.00 0.22 0.00 85 1008.1
20220525074849 76 0 5.0 12.0 0.00 0.22 0.00 85 1008.2
20220525074749 76 0 4.0 12.0 0.00 0.22 0.00 85 1008.1
20220525074650 76 0 6.0 12.0 0.00 0.22 0.00 85 1008.2
20220525074550 76 0 6.0 12.0 0.00 0.22 0.00 85 1008.2
20220525074451 76 0 6.0 12.0 0.00 0.22 0.00 85 1008.2
20220525074350 76 0 6.0 12.0 0.00 0.22 0.00 85 1008.3
20220525074250 76 0 5.0 12.0 0.00 0.22 0.00 85 1008.2
20220525074150 76 0 5.0 12.0 0.00 0.22 0.00 85 1008.2
20220525074051 76 0 6.0 9.0 0.00 0.22 0.00 85 1008.3
20220525073949 76 0 5.0 9.0 0.00 0.22 0.00 85 1008.3
20220525073849 76 0 4.0 9.0 0.00 0.22 0.00 85 1008.3
20220525073749 76 0 4.0 9.0 0.00 0.22 0.00 85 1008.3
20220525073646 76 0 4.0 9.0 0.00 0.22 0.00 85 1008.2
20220525073545 76 0 5.0 9.0 0.00 0.22 0.00 85 1008.2
20220525073445 76 0 5.0 9.0 0.00 0.22 0.00 85 1008.1
20220525073343 76 0 5.0 7.0 0.00 0.22 0.00 85 1008.0
20220525073240 76 0 5.0 7.0 0.00 0.22 0.00 85 1007.9
20220525073137 76 0 4.0 6.0 0.00 0.22 0.00 85 1007.9
20220525073035 76 0 3.0 4.0 0.00 0.22 0.00 85 1007.8
20220525072932 76 0 2.0 4.0 0.00 0.22 0.00 85 1007.7
20220525072833 76 0 1.0 2.0 0.00 0.22 0.00 85 1007.6
20220525072734 76 0 2.0 6.0 0.00 0.22 0.00 84 1007.6
20220525072634 76 0 4.0 7.0 0.00 0.22 0.00 84 1007.4
20220525072534 76 0 4.0 7.0 0.00 0.22 0.00 84 1007.3
20220525072434 76 0 4.0 7.0 0.00 0.22 0.00 84 1007.3
20220525072306 76 0 4.0 7.0 0.00 0.22 0.00 84 1007.2
20220525072205 76 0 4.0 7.0 0.00 0.22 0.00 84 1007.2
20220525072107 76 0 4.0 7.0 0.00 0.22 0.00 84 1007.1
20220525072006 76 0 4.0 7.0 0.00 0.22 0.00 84 1007.1
20220525071906 76 0 4.0 7.0 0.00 0.22 0.00 84 1007.1
20220525071804 76 0 4.0 7.0 0.00 0.22 0.00 84 1007.2
20220525071704 76 0 4.0 7.0 0.00 0.22 0.00 84 1007.2
20220525071604 76 0 5.0 9.0 0.00 0.22 0.00 84 1007.3
20220525071508 76 0 4.0 10.0 0.00 0.22 0.00 84 1007.3
20220525071404 76 0 3.0 10.0 0.00 0.22 0.00 84 1007.2
20220525071304 76 0 2.0 10.0 0.00 0.22 0.00 84 1007.2
20220525071204 76 0 3.0 10.0 0.00 0.22 0.00 84 1007.3
20220525071104 76 0 4.0 10.0 0.00 0.22 0.00 84 1007.2
20220525071004 76 0 4.0 10.0 0.00 0.22 0.00 84 1007.2
20220525070904 76 0 6.0 10.0 0.00 0.22 0.00 84 1007.2
20220525070812 76 0 6.0 10.0 0.00 0.22 0.00 84 1007.2
20220525070705 76 0 5.0 10.0 0.00 0.22 0.00 84 1007.2
20220525070606 76 0 4.0 6.0 0.00 0.22 0.00 84 1007.2
20220525070504 76 0 3.0 6.0 0.00 0.22 0.00 84 1007.2
20220525070405 76 0 2.0 6.0 0.00 0.22 0.00 84 1007.2
20220525070306 76 0 3.0 6.0 0.00 0.22 0.00 83 1007.3
20220525070207 76 0 3.0 6.0 0.00 0.22 0.00 83 1007.3
20220525070106 76 0 4.0 6.0 0.00 0.22 0.00 83 1007.3
20220525070004 76 0 3.0 6.0 0.00 0.22 0.00 83 1007.3
20220525065903 76 0 3.0 6.0 0.00 0.22 0.00 83 1007.3
20220525065807 76 0 3.0 6.0 0.00 0.22 0.00 83 1007.2
20220525065704 76 0 2.0 6.0 0.00 0.22 0.00 83 1007.2
20220525065606 76 0 3.0 6.0 0.00 0.22 0.00 83 1007.2
20220525065504 76 0 4.0 6.0 0.00 0.22 0.00 83 1007.2
20220525065405 76 0 4.0 5.0 0.00 0.22 0.00 83 1007.2
20220525065304 76 0 3.0 5.0 0.00 0.22 0.00 83 1007.2
20220525065205 76 0 2.0 5.0 0.00 0.22 0.00 83 1007.2
20220525065104 76 0 3.0 5.0 0.00 0.22 0.00 83 1007.2
20220525065009 76 0 3.0 5.0 0.00 0.22 0.00 83 1007.1
20220525064904 76 0 2.0 5.0 0.00 0.22 0.00 83 1007.1
20220525064805 76 0 2.0 7.0 0.00 0.22 0.00 83 1007.1
20220525064704 76 0 2.0 7.0 0.00 0.22 0.00 83 1007.1
20220525064603 76 0 3.0 7.0 0.00 0.22 0.00 83 1007.1
20220525064509 76 0 3.0 7.0 0.00 0.22 0.00 83 1007.1
20220525064406 76 0 3.0 7.0 0.00 0.22 0.00 83 1007.1
20220525064306 76 0 3.0 7.0 0.00 0.22 0.00 83 1007.0
20220525064206 76 0 3.0 7.0 0.00 0.22 0.00 83 1007.1
20220525064104 76 0 3.0 9.0 0.00 0.22 0.00 83 1007.0
20220525064006 76 0 4.0 9.0 0.00 0.22 0.00 83 1007.0
20220525063906 76 0 4.0 9.0 0.00 0.22 0.00 83 1007.0
20220525063804 76 0 4.0 9.0 0.00 0.22 0.00 83 1006.9
20220525063706 76 0 3.0 9.0 0.00 0.22 0.00 83 1006.9
20220525063606 76 0 3.0 9.0 0.00 0.22 0.00 83 1007.0
20220525063506 76 0 4.0 9.0 0.00 0.22 0.00 84 1006.9
20220525063404 76 0 5.0 9.0 0.00 0.22 0.00 84 1006.9
20220525063307 75 0 4.0 9.0 0.00 0.22 0.00 84 1006.9
20220525063204 75 0 3.0 6.0 0.00 0.22 0.00 84 1006.8
20220525063104 75 0 2.0 6.0 0.00 0.22 0.00 84 1006.7
20220525063006 75 0 1.0 4.0 0.00 0.22 0.00 84 1006.7
20220525062905 75 0 1.0 1.0 0.00 0.22 0.00 84 1006.7
20220525062808 75 0 0.0 0.0 0.00 0.22 0.00 85 1006.6
20220525062705 75 0 0.0 0.0 0.00 0.22 0.00 85 1006.6
20220525062605 75 0 0.0 0.0 0.00 0.22 0.00 85 1006.6
20220525062505 75 0 0.0 0.0 0.00 0.22 0.00 85 1006.6
20220525062403 75 0 0.0 0.0 0.00 0.22 0.00 85 1006.5
20220525062306 75 0 0.0 0.0 0.00 0.22 0.00 85 1006.5
20220525062204 74 0 0.0 0.0 0.00 0.22 0.00 85 1006.5
20220525062104 74 0 0.0 0.0 0.00 0.22 0.00 86 1006.5
20220525062006 74 0 0.0 0.0 0.00 0.22 0.00 86 1006.6
20220525061904 74 0 0.0 0.0 0.00 0.22 0.00 86 1006.5
20220525061805 74 0 0.0 0.0 0.00 0.22 0.00 86 1006.5
20220525061705 74 0 0.0 0.0 0.00 0.22 0.00 86 1006.5
20220525061604 74 0 0.0 0.0 0.00 0.22 0.00 86 1006.6
20220525061505 74 0 0.0 0.0 0.00 0.22 0.00 86 1006.6
20220525061407 74 0 0.0 0.0 0.00 0.22 0.00 86 1006.6
20220525061306 74 0 0.0 0.0 0.00 0.22 0.00 86 1006.5
20220525061204 74 0 0.0 0.0 0.00 0.22 0.00 86 1006.7
20220525061105 74 0 0.0 0.0 0.00 0.22 0.00 87 1006.6
20220525061005 74 0 0.0 0.0 0.00 0.22 0.00 87 1006.7
20220525060905 74 0 0.0 0.0 0.00 0.22 0.00 87 1006.7
20220525060805 74 0 0.0 0.0 0.00 0.22 0.00 87 1006.6
20220525060707 74 0 0.0 0.0 0.00 0.22 0.00 87 1006.7
20220525060605 74 0 0.0 0.0 0.00 0.22 0.00 87 1006.6
20220525060505 74 0 0.0 0.0 0.00 0.22 0.00 87 1006.7
20220525060405 74 0 0.0 0.0 0.00 0.22 0.00 87 1006.7
20220525060307 74 0 0.0 0.0 0.00 0.22 0.00 87 1006.7
20220525060204 74 0 0.0 0.0 0.00 0.22 0.00 87 1006.7
20220525060104 74 0 0.0 0.0 0.00 0.22 0.00 87 1006.7
20220525060009 74 0 0.0 0.0 0.00 0.22 0.00 87 1006.7
20220525055905 74 0 0.0 0.0 0.00 0.22 0.00 87 1006.7
20220525055806 74 0 0.0 0.0 0.00 0.22 0.00 87 1006.7
20220525055706 74 0 0.0 0.0 0.00 0.22 0.00 87 1006.7
20220525055606 74 0 0.0 0.0 0.00 0.22 0.00 86 1006.7
20220525055508 75 0 0.0 0.0 0.00 0.22 0.00 86 1006.7
20220525055406 75 0 0.0 0.0 0.00 0.22 0.00 86 1006.8
20220525055305 75 0 0.0 0.0 0.00 0.22 0.00 86 1006.7
20220525055204 75 0 0.0 0.0 0.00 0.22 0.00 86 1006.9
20220525055104 75 0 0.0 0.0 0.00 0.22 0.00 86 1006.8
20220525055004 75 0 0.0 0.0 0.00 0.22 0.00 86 1006.8
20220525054904 75 0 0.0 0.0 0.00 0.22 0.00 86 1006.8
20220525054805 75 0 0.0 0.0 0.00 0.22 0.00 86 1006.8
20220525054704 75 0 0.0 0.0 0.00 0.22 0.00 86 1006.7
20220525054606 75 0 0.0 0.0 0.00 0.22 0.00 86 1006.8
20220525054505 75 0 0.0 0.0 0.00 0.22 0.00 86 1006.8
20220525054404 75 0 0.0 0.0 0.00 0.22 0.00 86 1006.8
20220525054303 75 0 0.0 0.0 0.00 0.22 0.00 86 1006.8
20220525054206 75 0 0.0 0.0 0.00 0.22 0.00 86 1006.8
20220525054110 75 0 0.0 0.0 0.00 0.22 0.00 86 1006.8
20220525054004 75 0 0.0 0.0 0.00 0.22 0.00 86 1006.9
20220525053907 75 0 0.0 0.0 0.00 0.22 0.00 86 1006.8
20220525053807 75 0 0.0 0.0 0.00 0.22 0.00 86 1006.8
20220525053705 75 0 0.0 0.0 0.00 0.22 0.00 86 1006.9
20220525053605 75 0 0.0 4.0 0.00 0.22 0.00 86 1006.9
20220525053503 75 0 0.0 5.0 0.00 0.22 0.00 86 1006.9
20220525053404 75 0 0.0 5.0 0.00 0.22 0.00 85 1007.0
20220525053304 75 0 0.0 5.0 0.00 0.22 0.00 85 1006.9
20220525053204 75 0 0.0 5.0 0.00 0.22 0.00 85 1006.9
20220525053105 75 0 0.0 5.0 0.00 0.22 0.00 85 1006.9
20220525053006 75 0 0.0 5.0 0.00 0.22 0.00 85 1006.9
20220525052909 75 0 1.0 5.0 0.00 0.22 0.00 85 1006.8
20220525052807 75 0 2.0 5.0 0.00 0.22 0.00 85 1006.8
20220525052706 75 0 2.0 5.0 0.00 0.22 0.00 85 1006.8
20220525052605 75 0 2.0 5.0 0.00 0.22 0.00 85 1006.9
20220525052507 75 0 2.0 5.0 0.00 0.22 0.00 85 1006.9
20220525052404 75 0 0.0 0.0 0.00 0.22 0.00 85 1006.9
20220525052306 75 0 0.0 0.0 0.00 0.22 0.00 85 1007.0
20220525052209 75 0 0.0 1.0 0.00 0.22 0.00 85 1007.0
20220525052103 75 0 0.0 4.0 0.00 0.22 0.00 85 1007.0
20220525052003 75 0 0.0 4.0 0.00 0.22 0.00 85 1007.0
20220525051859 75 0 0.0 4.0 0.00 0.22 0.00 85 1007.1
20220525051753 75 0 0.0 4.0 0.00 0.22 0.00 85 1007.1
20220525051653 75 0 0.0 4.0 0.00 0.22 0.00 85 1007.0
20220525051549 75 0 0.0 4.0 0.00 0.22 0.00 85 1007.0
20220525051448 75 0 0.0 4.0 0.00 0.22 0.00 85 1007.0
20220525051344 75 0 1.0 4.0 0.00 0.22 0.00 85 1007.0
20220525051245 75 0 3.0 4.0 0.00 0.22 0.00 85 1006.9
20220525051143 75 0 2.0 4.0 0.00 0.22 0.00 85 1007.1
20220525051044 75 0 2.0 3.0 0.00 0.22 0.00 85 1007.0
20220525050943 75 0 2.0 3.0 0.00 0.22 0.00 85 1007.1
20220525050843 75 0 1.0 3.0 0.00 0.22 0.00 85 1007.1
20220525050745 75 0 0.0 5.0 0.00 0.22 0.00 85 1007.0
20220525050643 75 0 0.0 5.0 0.00 0.22 0.00 86 1006.9
20220525050545 75 0 0.0 5.0 0.00 0.22 0.00 86 1006.8
20220525050444 75 0 0.0 5.0 0.00 0.22 0.00 86 1006.8
20220525050346 75 0 0.0 5.0 0.00 0.22 0.00 86 1006.7
20220525050246 75 0 1.0 5.0 0.00 0.22 0.00 86 1006.8
20220525050143 75 0 2.0 5.0 0.00 0.22 0.00 86 1006.7
20220525050045 75 0 2.0 5.0 0.00 0.22 0.00 86 1006.8
20220525045943 75 0 2.0 5.0 0.00 0.22 0.22 86 1006.7
20220525045844 75 0 1.0 5.0 0.00 0.22 0.22 86 1006.7
20220525045746 75 0 2.0 5.0 0.00 0.22 0.22 86 1006.6
20220525045643 75 0 3.0 5.0 0.00 0.22 0.22 86 1006.7
20220525045543 75 0 2.0 5.0 0.00 0.22 0.22 86 1006.6
20220525045443 75 0 3.0 5.0 0.00 0.22 0.22 86 1006.7
20220525045345 75 0 2.0 5.0 0.00 0.22 0.22 86 1006.7
20220525045243 75 0 0.0 4.0 0.00 0.22 0.22 86 1006.8
20220525045143 75 0 1.0 5.0 0.00 0.22 0.22 86 1006.8
20220525045045 75 0 2.0 5.0 0.00 0.22 0.22 86 1006.9
20220525044944 75 0 2.0 5.0 0.00 0.22 0.22 86 1006.9
20220525044845 75 0 2.0 5.0 0.00 0.22 0.22 86 1006.9
20220525044743 75 0 0.0 5.0 0.00 0.22 0.22 86 1006.9
20220525044645 75 0 1.0 5.0 0.00 0.22 0.22 86 1007.0
20220525044549 75 0 2.0 5.0 0.00 0.22 0.22 86 1007.0
20220525044443 75 0 1.0 5.0 0.00 0.22 0.22 86 1007.0
20220525044344 75 0 2.0 5.0 0.00 0.22 0.22 86 1007.0
20220525044243 75 0 2.0 5.0 0.00 0.22 0.22 86 1007.0
20220525044144 75 0 3.0 5.0 0.00 0.22 0.22 86 1007.1
20220525044045 75 0 3.0 5.0 0.00 0.22 0.22 86 1007.0
20220525043943 75 0 2.0 9.0 0.00 0.22 0.22 86 1007.0
20220525043845 75 0 2.0 9.0 0.00 0.22 0.22 86 1007.0
20220525043743 75 0 3.0 9.0 0.00 0.22 0.22 86 1007.0
20220525043651 75 0 3.0 9.0 0.00 0.22 0.22 86 1007.0
20220525043547 75 0 2.0 9.0 0.00 0.22 0.22 86 1007.1
20220525043443 75 0 4.0 9.0 0.00 0.22 0.22 86 1007.0
20220525043342 75 0 4.0 9.0 0.00 0.22 0.22 86 1007.0
20220525043249 75 0 4.0 9.0 0.00 0.22 0.22 86 1007.0
20220525043143 75 0 3.0 9.0 0.00 0.22 0.22 86 1007.0
20220525043044 75 0 2.0 9.0 0.00 0.22 0.22 85 1007.1
20220525042944 76 0 1.0 9.0 0.00 0.22 0.22 85 1007.1
20220525042842 76 0 2.0 9.0 0.00 0.22 0.22 85 1007.2
20220525042744 76 0 2.0 9.0 0.00 0.22 0.22 85 1007.1
20220525042646 76 0 3.0 9.0 0.00 0.22 0.22 85 1007.3
20220525042543 76 0 4.0 9.0 0.00 0.22 0.22 85 1007.4
20220525042445 76 0 4.0 9.0 0.00 0.22 0.22 85 1007.5
20220525042342 76 0 3.0 6.0 0.00 0.22 0.22 85 1007.6
20220525042243 76 0 2.0 6.0 0.00 0.22 0.22 85 1007.6
20220525042143 76 0 2.0 6.0 0.00 0.22 0.22 85 1007.6
20220525042042 76 0 3.0 6.0 0.00 0.22 0.22 85 1007.6
20220525041942 76 0 2.0 6.0 0.00 0.22 0.22 85 1007.6
20220525041842 76 0 3.0 6.0 0.00 0.22 0.22 85 1007.6
20220525041742 76 0 3.0 6.0 0.00 0.22 0.22 85 1007.5
20220525041642 76 0 2.0 6.0 0.00 0.22 0.22 85 1007.5
20220525041544 76 0 3.0 6.0 0.00 0.22 0.22 85 1007.4
20220525041448 76 0 2.0 6.0 0.00 0.22 0.22 85 1007.4
20220525041342 76 0 3.0 6.0 0.00 0.22 0.22 85 1007.4
20220525041243 76 0 3.0 6.0 0.00 0.22 0.22 85 1007.4
20220525041146 76 0 3.0 6.0 0.00 0.22 0.22 85 1007.3
20220525041042 76 0 3.0 7.0 0.00 0.22 0.22 84 1007.3
20220525040942 76 0 3.0 7.0 0.00 0.22 0.22 84 1007.4
20220525040843 76 0 4.0 7.0 0.00 0.22 0.22 84 1007.2
20220525040742 76 0 3.0 7.0 0.00 0.22 0.22 84 1007.3
20220525040641 76 0 2.0 7.0 0.00 0.22 0.22 84 1007.2
20220525040543 76 0 2.0 7.0 0.00 0.22 0.22 84 1007.1
20220525040443 76 0 3.0 7.0 0.00 0.22 0.22 84 1007.2
20220525040342 76 0 4.0 7.0 0.00 0.22 0.22 84 1007.2
20220525040243 76 0 4.0 7.0 0.00 0.22 0.22 84 1007.2
20220525040149 76 0 3.0 9.0 0.00 0.22 0.22 84 1007.2
20220525040042 76 0 2.0 9.0 0.00 0.22 0.22 84 1007.2
20220525035941 76 0 2.0 10.0 0.00 0.22 0.22 84 1007.2
20220525035845 76 0 3.0 10.0 0.00 0.22 0.22 84 1007.2
20220525035742 76 0 4.0 10.0 0.00 0.22 0.22 84 1007.2
20220525035642 76 0 6.0 10.0 0.00 0.22 0.22 84 1007.2
20220525035546 76 0 6.0 10.0 0.00 0.22 0.22 84 1007.3
20220525035444 76 0 6.0 10.0 0.00 0.22 0.22 84 1007.2
20220525035343 76 0 6.0 10.0 0.00 0.22 0.22 84 1007.2
20220525035241 76 0 6.0 10.0 0.00 0.22 0.22 84 1007.2
20220525035142 76 0 5.0 10.0 0.00 0.22 0.22 84 1007.2
20220525035046 76 0 3.0 6.0 0.00 0.22 0.22 84 1007.2
20220525034943 76 0 2.0 7.0 0.00 0.22 0.22 84 1007.2
20220525034842 76 0 2.0 7.0 0.00 0.22 0.22 84 1007.3
20220525034741 76 0 2.0 10.0 0.00 0.22 0.22 84 1007.2
20220525034642 76 0 2.0 10.0 0.00 0.22 0.22 84 1007.1
20220525034541 76 0 2.0 10.0 0.00 0.22 0.22 84 1007.1
20220525034443 76 0 3.0 10.0 0.00 0.22 0.22 84 1007.0
20220525034343 76 0 4.0 10.0 0.00 0.22 0.22 84 1007.0
20220525034246 76 0 3.0 10.0 0.00 0.22 0.22 84 1007.0
20220525034142 76 0 3.0 10.0 0.00 0.22 0.22 84 1006.9
20220525034041 76 0 3.0 10.0 0.00 0.22 0.22 84 1006.8
20220525033942 76 0 4.0 10.0 0.00 0.22 0.22 84 1006.8
20220525033841 76 0 4.0 6.0 0.00 0.22 0.22 84 1006.8
20220525033743 76 0 4.0 6.0 0.00 0.22 0.22 84 1006.8
20220525033641 76 0 4.0 6.0 0.00 0.22 0.22 84 1006.8
20220525033544 76 0 4.0 5.0 0.00 0.22 0.22 84 1006.8
20220525033441 76 0 4.0 5.0 0.00 0.22 0.22 84 1006.8
20220525033345 76 0 3.0 5.0 0.00 0.22 0.22 84 1006.7
20220525033241 76 0 2.0 5.0 0.00 0.22 0.22 84 1006.7
20220525033142 76 0 3.0 5.0 0.00 0.22 0.22 83 1006.7
20220525033043 76 0 3.0 5.0 0.00 0.22 0.22 83 1006.6
20220525032942 76 0 1.0 3.0 0.00 0.22 0.22 83 1006.6
20220525032841 76 0 0.0 3.0 0.00 0.22 0.22 83 1006.6
20220525032743 76 0 1.0 3.0 0.00 0.22 0.22 83 1006.5
20220525032641 76 0 2.0 3.0 0.00 0.22 0.22 83 1006.5
20220525032536 76 0 1.0 3.0 0.00 0.22 0.22 83 1006.5
20220525032436 76 0 0.0 0.0 0.00 0.22 0.22 83 1006.5
20220525032334 76 0 0.0 0.0 0.00 0.22 0.22 83 1006.4
20220525032233 76 0 0.0 0.0 0.00 0.22 0.22 83 1006.4
20220525032137 76 0 0.0 0.0 0.00 0.22 0.22 82 1006.4
20220525032036 76 0 0.0 0.0 0.00 0.22 0.22 82 1006.4
20220525031931 76 0 0.0 0.0 0.00 0.22 0.22 82 1006.5
20220525031830 77 0 0.0 0.0 0.00 0.22 0.22 82 1006.5
20220525031722 77 0 0.0 0.0 0.00 0.22 0.22 82 1006.5
20220525031622 77 0 0.0 0.0 0.00 0.22 0.22 82 1006.5
20220525031520 77 0 0.0 0.0 0.00 0.22 0.22 82 1006.4
20220525031422 77 0 0.0 0.0 0.00 0.22 0.22 82 1006.5
20220525031327 77 0 0.0 0.0 0.00 0.22 0.22 82 1006.4
20220525031216 77 0 0.0 0.0 0.00 0.22 0.22 82 1006.5
20220525031113 77 0 0.0 0.0 0.00 0.22 0.22 82 1006.5
20220525031012 77 0 0.0 0.0 0.00 0.22 0.22 81 1006.5
20220525030911 77 0 0.0 0.0 0.00 0.22 0.22 81 1006.5
20220525030810 77 0 0.0 0.0 0.00 0.22 0.22 81 1006.5
20220525030706 77 0 0.0 0.0 0.00 0.22 0.22 81 1006.5
20220525030606 77 0 0.0 0.0 0.00 0.22 0.22 81 1006.5
20220525030506 77 0 0.0 0.0 0.00 0.22 0.22 81 1006.6
20220525030404 77 0 0.0 0.0 0.00 0.22 0.22 81 1006.5
20220525030308 77 0 0.0 0.0 0.00 0.22 0.22 81 1006.5
20220525030205 77 0 0.0 0.0 0.00 0.22 0.22 81 1006.5
20220525030104 77 0 0.0 0.0 0.00 0.22 0.22 81 1006.5
20220525030004 77 0 0.0 0.0 0.00 0.22 0.22 81 1006.5
20220525025905 77 0 0.0 0.0 0.00 0.22 0.22 81 1006.5
20220525025805 77 0 0.0 0.0 0.00 0.22 0.22 81 1006.4
20220525025704 77 0 0.0 0.0 0.00 0.22 0.22 81 1006.4
20220525025604 77 0 0.0 0.0 0.00 0.22 0.22 80 1006.4
20220525025508 77 0 0.0 0.0 0.00 0.22 0.22 80 1006.4
20220525025404 77 0 0.0 2.0 0.00 0.22 0.22 80 1006.4
20220525025305 77 0 0.0 3.0 0.00 0.22 0.22 80 1006.3
20220525025205 77 0 0.0 3.0 0.00 0.22 0.22 80 1006.4
20220525025107 77 0 0.0 3.0 0.00 0.22 0.22 80 1006.3
20220525025005 77 0 0.0 4.0 0.00 0.22 0.22 80 1006.3
20220525024905 77 0 0.0 4.0 0.00 0.22 0.22 80 1006.3
20220525024809 77 0 0.0 4.0 0.00 0.22 0.22 80 1006.3
20220525024707 77 0 0.0 4.0 0.00 0.22 0.22 80 1006.2
20220525024604 77 0 2.0 4.0 0.00 0.22 0.22 80 1006.3
20220525024511 77 0 2.0 4.0 0.00 0.22 0.22 80 1006.2
20220525024406 77 0 2.0 4.0 0.00 0.22 0.22 80 1006.3
20220525024308 77 0 2.0 4.0 0.00 0.22 0.22 80 1006.3
20220525024204 78 0 2.0 4.0 0.00 0.22 0.22 80 1006.3
20220525024105 78 0 2.0 4.0 0.00 0.22 0.22 79 1006.3
20220525024006 78 0 2.0 4.0 0.00 0.22 0.22 79 1006.3
20220525023904 78 0 2.0 4.0 0.00 0.22 0.22 79 1006.2
20220525023805 78 0 3.0 7.0 0.00 0.22 0.22 79 1006.2
20220525023705 78 0 2.0 7.0 0.00 0.22 0.22 79 1006.1
20220525023603 78 0 2.0 7.0 0.00 0.22 0.22 79 1006.1
20220525023505 78 0 1.0 7.0 0.00 0.22 0.22 79 1006.1
20220525023404 78 0 1.0 7.0 0.00 0.22 0.22 79 1006.1
20220525023304 78 0 2.0 7.0 0.00 0.22 0.22 79 1006.1
20220525023204 78 0 2.0 7.0 0.00 0.22 0.22 79 1006.2
20220525023104 78 0 4.0 7.0 0.00 0.22 0.22 79 1006.2
20220525023006 78 0 3.0 7.0 0.00 0.22 0.22 79 1006.2
20220525022906 78 0 2.0 7.0 0.00 0.22 0.22 79 1006.2
20220525022804 78 0 4.0 7.0 0.00 0.22 0.22 78 1006.1
20220525022705 78 0 4.0 7.0 0.00 0.22 0.22 78 1006.1
20220525022604 78 0 2.0 7.0 0.00 0.22 0.22 78 1006.0
20220525022503 78 0 2.0 9.0 0.00 0.22 0.22 78 1006.1
20220525022408 78 0 3.0 9.0 0.00 0.22 0.22 78 1006.1
20220525022305 78 0 3.0 9.0 0.00 0.22 0.22 78 1006.1
20220525022204 78 0 3.0 9.0 0.00 0.22 0.22 78 1006.0
20220525022105 78 0 3.0 9.0 0.00 0.22 0.22 78 1006.0
20220525022004 78 0 3.0 9.0 0.00 0.22 0.22 78 1006.0
20220525021906 78 0 3.0 9.0 0.00 0.22 0.22 78 1006.0
20220525021805 78 0 4.0 9.0 0.00 0.22 0.22 78 1005.9
20220525021704 78 0 4.0 9.0 0.00 0.22 0.22 78 1005.9
20220525021605 78 0 3.0 9.0 0.00 0.22 0.22 78 1005.8
20220525021504 78 0 4.0 9.0 0.00 0.22 0.22 78 1005.7
20220525021405 78 0 4.0 9.0 0.00 0.22 0.22 77 1005.6
20220525021305 78 0 4.0 9.0 0.00 0.22 0.22 77 1005.7
20220525021206 78 0 4.0 9.0 0.00 0.22 0.22 77 1005.7
20220525021108 78 0 4.0 9.0 0.00 0.22 0.22 77 1005.6
20220525021005 78 0 4.0 9.0 0.00 0.22 0.22 77 1005.6
20220525020906 78 0 4.0 7.0 0.00 0.22 0.22 77 1005.6
20220525020804 78 0 4.0 6.0 0.00 0.22 0.22 77 1005.4
20220525020706 78 0 3.0 6.0 0.00 0.22 0.22 77 1005.4
20220525020604 78 0 3.0 6.0 0.00 0.22 0.22 77 1005.4
20220525020504 78 0 3.0 6.0 0.00 0.22 0.22 77 1005.3
20220525020404 78 0 3.0 4.0 0.00 0.22 0.22 77 1005.2
20220525020305 78 0 2.0 4.0 0.00 0.22 0.22 77 1005.3
20220525020204 78 0 3.0 4.0 0.00 0.22 0.22 77 1005.2
20220525020104 78 0 3.0 5.0 0.00 0.22 0.22 76 1005.2
20220525020006 78 0 2.0 5.0 0.00 0.22 0.22 76 1005.1
20220525015905 78 0 1.0 5.0 0.00 0.22 0.22 76 1005.0
20220525015804 78 0 1.0 5.0 0.00 0.22 0.22 76 1005.0
20220525015706 78 0 1.0 5.0 0.00 0.22 0.22 76 1005.0
20220525015604 78 0 1.0 5.0 0.00 0.22 0.22 76 1005.0
20220525015504 78 0 2.0 5.0 0.00 0.22 0.22 76 1004.9
20220525015405 78 0 3.0 5.0 0.00 0.22 0.22 76 1004.9
20220525015306 78 0 2.0 5.0 0.00 0.22 0.22 76 1005.0
20220525015205 78 0 2.0 4.0 0.00 0.22 0.22 76 1004.9
20220525015104 78 0 3.0 4.0 0.00 0.22 0.22 76 1004.9
20220525015006 78 0 3.0 4.0 0.00 0.22 0.22 76 1005.0
20220525014909 78 0 2.0 4.0 0.00 0.22 0.22 76 1004.8
20220525014805 78 0 2.0 5.0 0.00 0.22 0.22 76 1004.8
20220525014705 78 0 2.0 5.0 0.00 0.22 0.22 76 1004.8
20220525014605 78 0 2.0 5.0 0.00 0.22 0.22 76 1004.8
20220525014505 78 0 2.0 5.0 0.00 0.22 0.22 76 1004.7
20220525014404 78 0 3.0 5.0 0.00 0.22 0.22 76 1004.7
20220525014304 78 0 2.0 5.0 0.00 0.22 0.22 76 1004.7
20220525014206 78 0 1.0 5.0 0.00 0.22 0.22 76 1004.6
20220525014105 78 0 2.0 5.0 0.00 0.22 0.22 75 1004.6
20220525014005 78 0 3.0 5.0 0.00 0.22 0.22 75 1004.6
20220525013905 78 0 3.0 4.0 0.00 0.22 0.22 75 1004.5
20220525013806 78 0 2.0 4.0 0.00 0.22 0.22 75 1004.5
20220525013706 78 0 1.0 4.0 0.00 0.22 0.22 75 1004.5
20220525013605 78 0 1.0 6.0 0.00 0.22 0.22 75 1004.4
20220525013507 79 0 2.0 6.0 0.00 0.22 0.22 75 1004.5
20220525013404 79 0 2.0 6.0 0.00 0.22 0.22 75 1004.5
20220525013305 79 0 2.0 6.0 0.00 0.22 0.22 75 1004.5
20220525013204 79 0 2.0 6.0 0.00 0.22 0.22 74 1004.5
20220525013104 79 0 3.0 6.0 0.00 0.22 0.22 74 1004.5
20220525013006 79 0 2.0 6.0 0.00 0.22 0.22 74 1004.5
20220525012904 79 0 3.0 6.0 0.00 0.22 0.22 74 1004.4
20220525012805 79 0 4.0 6.0 0.00 0.22 0.22 74 1004.4
20220525012705 79 0 2.0 6.0 0.00 0.22 0.22 74 1004.4
20220525012614 79 0 1.0 6.0 0.00 0.22 0.22 74 1004.5
20220525012506 79 0 3.0 6.0 0.00 0.22 0.22 74 1004.5
20220525012405 79 0 3.0 6.0 0.00 0.22 0.22 74 1004.4
20220525012304 79 0 4.0 7.0 0.00 0.22 0.22 74 1004.5
20220525012203 79 0 4.0 7.0 0.00 0.22 0.22 74 1004.5
20220525012105 79 0 3.0 7.0 0.00 0.22 0.22 74 1004.5
20220525012004 79 0 2.0 9.0 0.00 0.22 0.22 73 1004.5
20220525011905 79 0 2.0 9.0 0.00 0.22 0.22 74 1004.5
20220525011806 79 0 4.0 9.0 0.00 0.22 0.22 73 1004.5
20220525011704 79 0 4.0 9.0 0.00 0.22 0.22 73 1004.5
20220525011604 79 0 4.0 9.0 0.00 0.22 0.22 73 1004.5
20220525011505 79 0 3.0 9.0 0.00 0.22 0.22 73 1004.5
20220525011404 79 0 3.0 9.0 0.00 0.22 0.22 73 1004.4
20220525011305 79 0 5.0 9.0 0.00 0.22 0.22 73 1004.4
20220525011204 79 0 4.0 9.0 0.00 0.22 0.22 73 1004.4
20220525011106 79 0 1.0 6.0 0.00 0.22 0.22 73 1004.3
20220525011004 79 0 1.0 11.0 0.00 0.22 0.22 73 1004.4
20220525010905 79 0 2.0 11.0 0.00 0.22 0.22 73 1004.4
20220525010805 79 0 4.0 11.0 0.00 0.22 0.22 73 1004.4
20220525010712 80 0 4.0 11.0 0.00 0.22 0.22 73 1004.4
20220525010608 80 0 2.0 11.0 0.00 0.22 0.22 73 1004.4
20220525010506 80 0 1.0 11.0 0.00 0.22 0.22 73 1004.4
20220525010405 80 0 2.0 11.0 0.00 0.22 0.22 73 1004.4
20220525010303 80 0 4.0 11.0 0.00 0.22 0.22 72 1004.3
20220525010206 80 0 5.0 11.0 0.00 0.22 0.22 72 1004.3
20220525010105 80 0 4.0 9.0 0.00 0.22 0.22 72 1004.3
20220525010004 80 0 5.0 9.0 0.00 0.22 0.22 72 1004.2
20220525005905 80 0 5.0 9.0 0.00 0.22 0.22 72 1004.2
20220525005806 80 0 5.0 9.0 0.00 0.22 0.22 72 1004.2
20220525005651 80 0 5.0 9.0 0.00 0.22 0.22 72 1004.2
20220525005549 80 0 5.0 9.0 0.00 0.22 0.22 72 1004.2
20220525005449 80 0 5.0 9.0 0.00 0.22 0.22 72 1004.2
20220525005347 80 0 4.0 9.0 0.00 0.22 0.22 72 1004.1
20220525005243 80 0 2.0 5.0 0.00 0.22 0.22 72 1004.2
20220525005141 80 0 2.0 5.0 0.00 0.22 0.22 72 1004.2
20220525005040 80 0 2.0 9.0 0.00 0.22 0.22 72 1004.1
20220525004938 80 0 3.0 12.0 0.00 0.22 0.22 72 1004.1
20220525004839 80 0 4.0 12.0 0.00 0.22 0.22 72 1004.1
20220525004741 80 0 4.0 12.0 0.00 0.22 0.22 72 1004.1
20220525004637 80 0 4.0 13.0 0.00 0.22 0.22 71 1004.2
20220525004538 80 0 3.0 13.0 0.00 0.22 0.22 71 1004.1
20220525004438 80 0 3.0 13.0 0.00 0.22 0.22 71 1004.1
20220525004338 80 0 3.0 13.0 0.00 0.22 0.22 71 1004.1
20220525004241 80 0 5.0 13.0 0.00 0.22 0.22 71 1004.1
20220525004137 80 0 7.0 13.0 0.00 0.22 0.22 71 1004.1
20220525004039 80 0 7.0 13.0 0.00 0.22 0.22 71 1004.1
20220525003937 80 0 7.0 13.0 0.00 0.22 0.22 71 1004.1
20220525003838 80 0 8.0 13.0 0.00 0.22 0.22 71 1004.1
20220525003737 80 0 7.0 13.0 0.00 0.22 0.22 71 1004.1
20220525003700 80 0 6.0 11.0 0.00 0.22 0.22 71 1004.0
20220525003536 80 0 5.0 11.0 0.00 0.22 0.22 71 1004.0
20220525003437 80 0 4.0 11.0 0.00 0.22 0.22 71 1004.0
20220525003339 80 0 7.0 11.0 0.00 0.22 0.22 71 1003.9
20220525003237 80 0 7.0 13.0 0.00 0.22 0.22 71 1004.0
20220525003136 80 164 6.0 13.0 0.00 0.22 0.22 71 1003.9
20220525003041 80 169 5.0 13.0 0.00 0.22 0.22 71 1003.9
20220525002937 80 199 5.0 13.0 0.00 0.22 0.22 71 1003.9
20220525002837 80 144 6.0 13.0 0.00 0.22 0.22 70 1003.9
20220525002737 80 190 6.0 13.0 0.00 0.22 0.22 70 1003.9
20220525002639 80 206 7.0 13.0 0.00 0.22 0.22 70 1004.0
20220525002537 81 141 8.0 13.0 0.00 0.22 0.22 70 1003.9
20220525002438 81 151 7.0 13.0 0.00 0.22 0.22 70 1004.0
20220525002338 81 157 5.0 11.0 0.00 0.22 0.22 70 1004.0
20220525002239 81 151 4.0 11.0 0.00 0.22 0.22 70 1004.0
20220525002136 81 145 6.0 11.0 0.00 0.22 0.22 70 1004.1
20220525002037 81 138 5.0 11.0 0.00 0.22 0.22 70 1004.1
20220525001938 81 158 5.0 11.0 0.00 0.22 0.22 70 1004.0
20220525001837 81 149 6.0 10.0 0.00 0.22 0.22 70 1004.0
20220525001736 81 131 4.0 13.0 0.00 0.22 0.22 70 1003.9
20220525001641 81 159 3.0 13.0 0.00 0.22 0.22 71 1003.9
20220525001536 81 141 2.0 13.0 0.00 0.22 0.22 71 1004.1
20220525001436 81 158 3.0 13.0 0.00 0.22 0.22 71 1003.9
20220525001336 81 152 3.0 13.0 0.00 0.22 0.22 71 1004.0
20220525001238 81 96 4.0 13.0 0.00 0.22 0.22 70 1004.0
20220525001136 81 183 4.0 13.0 0.00 0.22 0.22 70 1003.9
20220525001036 81 0 5.0 13.0 0.00 0.22 0.22 71 1004.0
20220525000938 81 0 7.0 13.0 0.00 0.22 0.22 70 1004.0
20220525000837 81 0 7.0 11.0 0.00 0.22 0.22 71 1004.0
20220525000736 81 0 7.0 11.0 0.00 0.22 0.22 71 1004.0
20220525000636 81 0 6.0 12.0 0.00 0.22 0.22 71 1004.0
20220525000538 81 0 6.0 12.0 0.00 0.22 0.22 71 1004.1
20220525000436 81 0 5.0 12.0 0.00 0.22 0.22 71 1004.1
20220525000336 81 0 4.0 12.0 0.00 0.22 0.22 71 1004.0
20220525000239 81 0 4.0 12.0 0.00 0.22 0.22 71 1004.1
20220525000139 81 0 3.0 12.0 0.00 0.22 0.22 71 1004.2
20220525000037 81 0 2.0 12.0 0.00 0.22 0.22 71 1004.1
20220524235936 81 0 4.0 12.0 0.00 0.22 0.22 70 1004.2
20220524235838 81 0 5.0 12.0 0.00 0.22 0.22 70 1004.2
20220524235738 81 0 5.0 12.0 0.00 0.22 0.22 70 1004.2
20220524235635 81 0 5.0 12.0 0.00 0.22 0.22 70 1004.2
20220524235538 81 0 4.0 9.0 0.00 0.22 0.22 70 1004.2
20220524235436 81 0 4.0 9.0 0.00 0.22 0.22 70 1004.2
20220524235337 81 0 4.0 9.0 0.00 0.22 0.22 70 1004.2
20220524235236 81 0 2.0 9.0 0.00 0.22 0.22 70 1004.2
20220524235138 81 0 2.0 9.0 0.00 0.22 0.22 70 1004.2
20220524235036 81 0 4.0 11.0 0.00 0.22 0.22 70 1004.2
20220524234936 81 0 5.0 11.0 0.00 0.22 0.22 70 1004.2
20220524234836 81 0 5.0 12.0 0.00 0.22 0.22 69 1004.2
20220524234736 81 0 5.0 12.0 0.00 0.22 0.22 69 1004.2
20220524234636 81 0 4.0 12.0 0.00 0.22 0.22 69 1004.3
20220524234538 81 151 4.0 12.0 0.00 0.22 0.22 69 1004.2
20220524234436 81 164 5.0 12.0 0.00 0.22 0.22 69 1004.1
20220524234337 81 152 5.0 12.0 0.00 0.22 0.22 69 1004.2
20220524234235 81 140 6.0 12.0 0.00 0.22 0.22 69 1004.2
20220524234138 81 190 6.0 12.0 0.00 0.22 0.22 69 1004.2
20220524234036 81 140 5.0 11.0 0.00 0.22 0.22 69 1004.3
20220524233935 81 121 5.0 11.0 0.00 0.22 0.22 69 1004.4
20220524233836 81 155 4.0 11.0 0.00 0.22 0.22 68 1004.3
20220524233736 81 142 4.0 11.0 0.00 0.22 0.22 68 1004.3
20220524233637 81 120 4.0 11.0 0.00 0.22 0.22 68 1004.4
20220524233540 81 152 4.0 11.0 0.00 0.22 0.22 68 1004.5
20220524233440 81 161 4.0 11.0 0.00 0.22 0.22 68 1004.5
20220524233336 81 171 5.0 14.0 0.00 0.22 0.22 68 1004.6
20220524233235 81 197 5.0 14.0 0.00 0.22 0.22 68 1004.6
20220524233136 81 127 5.0 14.0 0.00 0.22 0.22 67 1004.6
20220524233036 81 155 5.0 14.0 0.00 0.22 0.22 67 1004.5
20220524232936 81 135 5.0 14.0 0.00 0.22 0.22 67 1004.5
20220524232836 81 145 6.0 14.0 0.00 0.22 0.22 67 1004.6
20220524232740 82 135 6.0 14.0 0.00 0.22 0.22 67 1004.6
20220524232642 82 138 5.0 14.0 0.00 0.22 0.22 67 1004.6
20220524232537 82 149 6.0 14.0 0.00 0.22 0.22 68 1004.6
20220524232435 82 175 6.0 13.0 0.00 0.22 0.22 67 1004.7
20220524232335 82 159 4.0 14.0 0.00 0.22 0.22 67 1004.6
20220524232236 82 109 6.0 14.0 0.00 0.22 0.22 67 1004.6
20220524232138 82 124 6.0 14.0 0.00 0.22 0.22 67 1004.7
20220524232036 82 106 6.0 14.0 0.00 0.22 0.22 67 1004.7
20220524231935 82 135 7.0 14.0 0.00 0.22 0.22 66 1004.6
20220524231836 82 141 6.0 14.0 0.00 0.22 0.22 67 1004.8
20220524231735 82 165 8.0 15.0 0.00 0.22 0.22 66 1004.8
20220524231638 82 164 9.0 15.0 0.00 0.22 0.22 66 1004.8
20220524231535 82 169 6.0 15.0 0.00 0.22 0.22 67 1004.9
20220524231435 82 158 3.0 15.0 0.00 0.22 0.22 68 1005.0
20220524231336 82 123 2.0 15.0 0.00 0.22 0.22 68 1004.9
20220524231235 82 151 4.0 10.0 0.00 0.22 0.22 71 1004.9
20220524231135 82 151 4.0 10.0 0.00 0.22 0.22 71 1004.9
20220524231035 82 151 4.0 10.0 0.00 0.22 0.22 71 1004.9
20220524230935 82 151 4.0 10.0 0.00 0.22 0.22 71 1005.0
20220524230836 82 117 4.0 10.0 0.00 0.22 0.22 71 1005.0
20220524230733 82 135 2.0 10.0 0.00 0.22 0.22 71 1004.9
20220524230632 82 127 5.0 10.0 0.00 0.22 0.22 71 1005.0
20220524230535 82 161 6.0 11.0 0.00 0.22 0.22 71 1005.0
20220524230433 82 157 4.0 11.0 0.00 0.22 0.22 72 1005.0
20220524230330 82 124 3.0 11.0 0.00 0.22 0.22 73 1005.0
20220524230230 81 130 4.0 11.0 0.00 0.22 0.22 73 1005.0
20220524230134 81 114 5.0 11.0 0.00 0.22 0.22 73 1005.0
20220524230024 81 114 4.0 11.0 0.00 0.22 0.22 75 1005.1
20220524225920 81 128 4.0 11.0 0.00 0.22 0.22 74 1005.0
20220524225814 81 147 5.0 11.0 0.00 0.22 0.22 75 1005.1
20220524225710 81 118 5.0 11.0 0.00 0.22 0.22 75 1005.1
20220524225607 81 131 5.0 9.0 0.00 0.22 0.22 75 1005.1
20220524225506 81 149 4.0 9.0 0.00 0.22 0.22 75 1005.1
20220524225405 81 159 3.0 9.0 0.00 0.22 0.22 76 1005.1
20220524225306 81 137 2.0 9.0 0.00 0.22 0.22 76 1005.1
20220524225205 81 99 4.0 9.0 0.00 0.22 0.22 76 1005.1
20220524225115 81 151 5.0 7.0 0.00 0.22 0.22 76 1005.1
20220524225005 81 159 4.0 7.0 0.00 0.22 0.22 76 1005.1
20220524224907 81 92 3.0 6.0 0.00 0.22 0.22 77 1005.1
20220524224807 81 109 3.0 6.0 0.00 0.22 0.22 77 1005.1
20220524224704 81 117 3.0 6.0 0.00 0.22 0.22 76 1005.2
20220524224616 81 79 3.0 6.0 0.00 0.22 0.22 76 1005.2
20220524224506 81 83 2.0 6.0 0.00 0.22 0.22 76 1005.3
20220524224404 81 127 2.0 6.0 0.00 0.22 0.22 76 1005.3
20220524224305 81 142 3.0 4.0 0.00 0.22 0.22 76 1005.3
20220524224205 81 69 1.0 4.0 0.00 0.22 0.22 77 1005.3
20220524224106 81 137 1.0 4.0 0.00 0.22 0.22 76 1005.3
20220524224006 81 144 2.0 4.0 0.00 0.22 0.22 76 1005.3
20220524223908 81 106 2.0 9.0 0.00 0.22 0.22 76 1005.4
20220524223804 81 104 2.0 11.0 0.00 0.22 0.22 75 1005.4
20220524223706 81 104 2.0 11.0 0.00 0.22 0.22 75 1005.4
20220524223604 81 154 1.0 11.0 0.00 0.22 0.22 76 1005.5
20220524223506 81 121 1.0 11.0 0.00 0.22 0.22 75 1005.4
20220524223405 81 138 2.0 11.0 0.00 0.22 0.22 75 1005.4
20220524223304 81 141 2.0 11.0 0.00 0.22 0.22 75 1005.4
20220524223208 81 87 4.0 11.0 0.00 0.22 0.22 75 1005.5
20220524223106 81 69 6.0 11.0 0.00 0.22 0.22 74 1005.5
20220524223004 81 61 7.0 11.0 0.00 0.22 0.22 74 1005.5
20220524222905 81 65 5.0 7.0 0.00 0.22 0.22 75 1005.5
20220524222804 81 92 4.0 7.0 0.00 0.22 0.22 75 1005.6
20220524222707 82 104 3.0 13.0 0.00 0.22 0.22 75 1005.6
20220524222603 81 100 4.0 13.0 0.00 0.22 0.22 74 1005.6
20220524222505 81 107 4.0 13.0 0.00 0.22 0.22 73 1005.6
20220524222405 81 97 4.0 13.0 0.00 0.22 0.22 73 1005.6
20220524222304 81 82 4.0 13.0 0.00 0.22 0.22 74 1005.6
20220524222205 81 121 2.0 13.0 0.00 0.22 0.22 75 1005.6
20220524222104 81 121 2.0 13.0 0.00 0.22 0.22 75 1005.7
20220524222005 81 123 4.0 13.0 0.00 0.22 0.22 74 1005.7
20220524221904 81 127 5.0 10.0 0.00 0.22 0.22 74 1005.7
20220524221805 81 151 4.0 10.0 0.00 0.22 0.22 74 1005.7
20220524221706 81 137 5.0 10.0 0.00 0.22 0.22 73 1005.7
20220524221604 81 168 4.0 10.0 0.00 0.22 0.22 74 1005.8
20220524221510 81 125 3.0 10.0 0.00 0.22 0.22 75 1005.7
20220524221405 81 141 3.0 10.0 0.00 0.22 0.22 75 1005.8
20220524221305 81 111 3.0 10.0 0.00 0.22 0.22 76 1005.8
20220524221208 81 103 4.0 10.0 0.00 0.22 0.22 75 1005.8
20220524221108 81 147 4.0 10.0 0.00 0.22 0.22 76 1005.7
20220524221007 81 166 2.0 6.0 0.00 0.22 0.22 77 1005.7
20220524220905 81 89 3.0 6.0 0.00 0.22 0.22 77 1005.7
20220524220805 81 66 3.0 7.0 0.00 0.22 0.22 77 1005.7
20220524220704 81 114 2.0 7.0 0.00 0.22 0.22 77 1005.7
20220524220604 80 114 2.0 7.0 0.00 0.22 0.22 77 1005.7
20220524220506 80 104 3.0 7.0 0.00 0.22 0.22 77 1005.6
20220524220405 80 76 3.0 7.0 0.00 0.22 0.22 77 1005.6
20220524220304 80 106 2.0 7.0 0.00 0.22 0.22 77 1005.7
20220524220204 80 121 2.0 7.0 0.00 0.22 0.22 77 1005.8
20220524220105 80 117 3.0 7.0 0.00 0.22 0.22 77 1005.8
20220524220005 80 118 4.0 6.0 0.00 0.22 0.22 77 1005.8
20220524215904 80 127 3.0 10.0 0.00 0.22 0.22 77 1005.8
20220524215804 80 127 2.0 10.0 0.00 0.22 0.22 78 1005.7
20220524215659 80 121 2.0 10.0 0.00 0.22 0.22 77 1005.6
20220524215557 80 149 3.0 10.0 0.00 0.22 0.22 77 1005.7
20220524215454 80 155 3.0 10.0 0.00 0.22 0.22 77 1005.7
20220524215354 80 133 3.0 14.0 0.00 0.22 0.22 78 1005.7
20220524215254 80 162 2.0 14.0 0.00 0.22 0.22 78 1005.7
20220524215152 80 58 4.0 14.0 0.00 0.22 0.22 79 1005.7
20220524215048 80 96 4.0 14.0 0.00 0.22 0.22 79 1005.8
20220524214948 80 89 4.0 14.0 0.00 0.22 0.22 80 1005.8
20220524214848 80 151 3.0 14.0 0.00 0.22 0.22 80 1005.7
20220524214745 80 93 3.0 14.0 0.00 0.22 0.22 80 1005.7
20220524214643 80 104 5.0 14.0 0.00 0.22 0.22 80 1005.7
20220524214538 79 83 8.0 14.0 0.00 0.22 0.22 80 1005.7
20220524214437 79 69 6.0 12.0 0.00 0.22 0.22 81 1005.6
20220524214336 79 0 4.0 12.0 0.00 0.22 0.22 81 1005.7
20220524214233 79 92 4.0 12.0 0.00 0.22 0.22 80 1005.8
20220524214135 79 0 4.0 12.0 0.00 0.22 0.22 81 1005.7
20220524214035 79 104 4.0 11.0 0.00 0.22 0.22 81 1005.7
20220524213938 79 104 5.0 11.0 0.00 0.22 0.22 81 1005.7
20220524213833 79 0 6.0 11.0 0.00 0.22 0.22 82 1005.7
20220524213733 79 0 6.0 11.0 0.00 0.22 0.22 82 1005.7
20220524213636 79 0 7.0 11.0 0.00 0.22 0.22 82 1005.7
20220524213533 79 0 6.0 13.0 0.00 0.22 0.22 82 1005.6
20220524213435 79 0 5.0 13.0 0.00 0.22 0.22 82 1005.6
20220524213334 78 0 6.0 13.0 0.00 0.22 0.22 82 1005.6
20220524213233 78 0 7.0 13.0 0.00 0.22 0.22 82 1005.6
20220524213133 78 0 6.0 13.0 0.00 0.22 0.22 82 1005.5
20220524213032 78 0 7.0 13.0 0.00 0.22 0.22 82 1005.5
20220524212934 78 0 9.0 13.0 0.00 0.22 0.22 82 1005.4
20220524212833 78 0 9.0 13.0 0.00 0.22 0.22 82 1005.4
20220524212732 78 0 9.0 13.0 0.00 0.22 0.22 82 1005.5
20220524212637 78 0 9.0 13.0 0.00 0.22 0.22 83 1005.6
20220524212534 78 0 7.0 13.0 0.00 0.22 0.22 83 1005.6
20220524212433 78 0 7.0 13.0 0.00 0.22 0.22 84 1005.7
20220524212334 78 0 7.0 13.0 0.00 0.22 0.22 84 1005.8
20220524212236 78 99 5.0 13.0 0.00 0.22 0.22 84 1005.7
20220524212132 78 0 5.0 13.0 0.00 0.22 0.22 84 1005.8
20220524212033 78 0 7.0 15.0 0.00 0.22 0.22 83 1005.8
20220524211934 78 0 9.0 15.0 0.00 0.22 0.22 83 1005.7
20220524211840 78 103 10.0 15.0 0.00 0.22 0.22 83 1005.8
20220524211732 78 0 9.0 15.0 0.00 0.22 0.22 83 1005.8
20220524211633 78 0 8.0 15.0 0.00 0.22 0.22 83 1005.7
20220524211532 78 85 7.0 15.0 0.00 0.22 0.22 84 1005.7
20220524211432 78 0 8.0 15.0 0.00 0.22 0.22 84 1005.7
20220524211332 78 0 9.0 15.0 0.00 0.22 0.22 83 1005.8
20220524211234 78 0 10.0 15.0 0.00 0.22 0.22 83 1005.9
20220524211135 78 0 10.0 14.0 0.00 0.22 0.22 83 1005.9
20220524211037 78 0 9.0 14.0 0.00 0.22 0.22 83 1006.0
20220524210932 78 0 9.0 14.0 0.00 0.22 0.22 83 1006.0
20220524210833 78 0 7.0 14.0 0.00 0.22 0.22 84 1006.0
20220524210732 78 78 5.0 17.0 0.00 0.22 0.22 84 1005.9
20220524210632 78 0 6.0 17.0 0.00 0.22 0.22 84 1006.0
20220524210534 78 0 7.0 17.0 0.00 0.22 0.22 84 1006.0
20220524210433 78 0 9.0 17.0 0.00 0.22 0.22 84 1006.1
20220524210334 78 0 10.0 17.0 0.00 0.22 0.22 84 1006.1
20220524210232 78 0 9.0 17.0 0.00 0.22 0.22 85 1006.2
20220524210133 78 0 8.0 17.0 0.00 0.22 0.22 84 1006.2
20220524210035 78 0 8.0 17.0 0.00 0.22 0.22 86 1006.3
20220524205932 77 0 9.0 17.0 0.00 0.22 0.22 85 1006.4
20220524205833 77 0 10.0 16.0 0.00 0.22 0.22 85 1006.4
20220524205733 77 0 9.0 16.0 0.00 0.22 0.22 85 1006.4
20220524205633 77 0 10.0 16.0 0.00 0.22 0.22 85 1006.4
20220524205535 77 0 12.0 16.0 0.00 0.22 0.22 85 1006.5
20220524205433 78 0 12.0 16.0 0.00 0.22 0.22 85 1006.5
20220524205337 78 0 10.0 16.0 0.00 0.22 0.22 86 1006.5
20220524205232 78 0 8.0 16.0 0.00 0.22 0.22 86 1006.5
20220524205133 77 54 7.0 16.0 0.00 0.22 0.22 86 1006.6
20220524205032 77 0 7.0 16.0 0.00 0.22 0.22 86 1006.6
20220524204933 77 0 7.0 16.0 0.00 0.22 0.22 85 1006.5
20220524204833 77 0 9.0 16.0 0.00 0.22 0.22 85 1006.5
20220524204733 77 0 11.0 16.0 0.00 0.22 0.22 84 1006.6
20220524204634 77 0 9.0 15.0 0.00 0.22 0.22 85 1006.7
20220524204534 77 0 9.0 15.0 0.00 0.22 0.22 85 1006.6
20220524204437 77 0 11.0 15.0 0.00 0.22 0.22 84 1006.6
20220524204326 77 0 9.0 15.0 0.00 0.22 0.22 84 1006.6
20220524204224 77 0 8.0 15.0 0.00 0.22 0.22 84 1006.7
20220524204119 77 75 9.0 15.0 0.00 0.22 0.22 84 1006.8
20220524204019 77 0 9.0 15.0 0.00 0.22 0.22 83 1006.7
20220524203905 78 94 9.0 15.0 0.00 0.22 0.22 83 1006.9
20220524203803 78 76 9.0 13.0 0.00 0.22 0.22 83 1006.9
20220524203703 78 83 9.0 13.0 0.00 0.22 0.22 83 1006.9
20220524203605 78 0 8.0 12.0 0.00 0.22 0.22 82 1007.0
20220524203505 78 0 7.0 12.0 0.00 0.22 0.22 83 1006.9
20220524203406 78 0 7.0 12.0 0.00 0.22 0.22 83 1006.9
20220524203305 78 0 7.0 12.0 0.00 0.22 0.22 83 1007.0
20220524203205 78 0 6.0 12.0 0.00 0.22 0.22 83 1007.0
20220524203103 78 0 7.0 12.0 0.00 0.22 0.22 83 1007.0
20220524203004 78 0 6.0 12.0 0.00 0.22 0.22 83 1006.9
20220524202908 77 0 6.0 12.0 0.00 0.22 0.22 83 1006.9
20220524202805 77 0 6.0 12.0 0.00 0.22 0.22 83 1006.8
20220524202658 77 0 7.0 12.0 0.00 0.22 0.22 82 1006.9
20220524202556 77 0 8.0 12.0 0.00 0.22 0.22 83 1006.8
20220524202455 77 0 6.0 9.0 0.00 0.22 0.22 83 1006.9
20220524202355 77 0 4.0 9.0 0.00 0.22 0.22 83 1006.8
20220524202252 77 72 4.0 9.0 0.00 0.22 0.22 83 1006.9
20220524202152 77 0 6.0 9.0 0.00 0.22 0.22 83 1006.8
20220524202041 77 0 5.0 6.0 0.00 0.22 0.22 83 1006.8
20220524201940 77 0 4.0 6.0 0.00 0.22 0.22 84 1006.7
20220524201841 77 0 3.0 6.0 0.00 0.22 0.22 83 1006.7
20220524201739 77 0 3.0 6.0 0.00 0.22 0.22 84 1006.7
20220524201639 77 0 3.0 6.0 0.00 0.22 0.22 84 1006.6
20220524201536 77 0 2.0 6.0 0.00 0.22 0.22 84 1006.5
20220524201435 77 0 2.0 6.0 0.00 0.22 0.22 84 1006.5
20220524201332 77 0 3.0 6.0 0.00 0.22 0.22 84 1006.6
20220524201233 77 0 4.0 6.0 0.00 0.22 0.22 84 1006.7
20220524201133 77 0 3.0 6.0 0.00 0.22 0.22 84 1006.6
20220524201033 77 0 1.0 5.0 0.00 0.22 0.22 85 1006.6
20220524200933 76 0 0.0 5.0 0.00 0.22 0.22 85 1006.8
20220524200833 76 0 1.0 5.0 0.00 0.22 0.22 85 1006.8
20220524200732 76 0 3.0 5.0 0.00 0.22 0.22 84 1006.8
20220524200641 76 0 1.0 5.0 0.00 0.22 0.22 84 1006.8
20220524200534 76 0 0.0 0.0 0.00 0.22 0.22 85 1006.9
20220524200433 76 0 0.0 0.0 0.00 0.22 0.22 85 1007.0
20220524200333 76 0 0.0 1.0 0.00 0.22 0.22 85 1007.1
20220524200234 76 0 0.0 2.0 0.00 0.22 0.22 85 1007.1
20220524200134 76 0 0.0 2.0 0.00 0.22 0.22 85 1007.1
20220524200033 76 0 0.0 3.0 0.00 0.22 0.22 85 1007.2
20220524195936 76 0 0.0 3.0 0.00 0.22 0.22 85 1007.2
20220524195831 76 0 0.0 3.0 0.00 0.22 0.22 85 1007.3
20220524195731 76 0 0.0 3.0 0.00 0.22 0.22 85 1007.3
20220524195632 76 0 0.0 3.0 0.00 0.22 0.22 85 1007.4
20220524195531 76 0 0.0 3.0 0.00 0.22 0.22 85 1007.4
20220524195432 76 0 1.0 3.0 0.00 0.22 0.22 84 1007.4
20220524195331 76 0 1.0 3.0 0.00 0.22 0.22 84 1007.4
20220524195230 76 0 2.0 3.0 0.00 0.22 0.22 84 1007.4
20220524195131 76 0 1.0 2.0 0.00 0.22 0.22 85 1007.5
20220524195031 76 0 1.0 2.0 0.00 0.22 0.22 85 1007.4
20220524194930 76 0 0.0 2.0 0.00 0.22 0.22 84 1007.5
20220524194831 76 0 1.0 2.0 0.00 0.22 0.22 84 1007.5
20220524194732 76 0 1.0 2.0 0.00 0.22 0.22 84 1007.6
20220524194631 76 0 0.0 1.0 0.00 0.22 0.22 84 1007.6
20220524194531 76 0 0.0 1.0 0.00 0.22 0.22 84 1007.7
20220524194430 76 0 0.0 1.0 0.00 0.22 0.22 84 1007.7
20220524194331 76 0 0.0 2.0 0.00 0.22 0.22 84 1007.7
20220524194233 76 0 0.0 3.0 0.00 0.22 0.22 84 1007.8
20220524194131 76 0 0.0 3.0 0.00 0.22 0.22 84 1007.8
20220524194032 76 0 0.0 3.0 0.00 0.22 0.22 84 1007.8
20220524193930 76 0 0.0 3.0 0.00 0.22 0.22 84 1007.9
20220524193826 76 0 0.0 3.0 0.00 0.22 0.22 84 1007.9
20220524193725 76 0 0.0 3.0 0.00 0.22 0.22 84 1007.9
20220524193622 76 0 0.0 3.0 0.00 0.22 0.22 84 1007.9
20220524193521 76 0 1.0 3.0 0.00 0.22 0.22 84 1007.9
20220524193423 76 0 2.0 3.0 0.00 0.22 0.22 83 1008.0
20220524193316 76 0 1.0 3.0 0.00 0.22 0.22 84 1008.0
20220524193213 76 0 0.0 0.0 0.00 0.22 0.22 84 1008.1
20220524193112 76 0 0.0 0.0 0.00 0.22 0.22 84 1008.1
20220524193012 76 0 0.0 0.0 0.00 0.22 0.22 84 1008.0
20220524192907 76 0 0.0 0.0 0.00 0.22 0.22 84 1008.0
20220524192805 76 0 0.0 3.0 0.00 0.22 0.22 84 1008.0
20220524192708 76 0 0.0 4.0 0.00 0.22 0.22 84 1008.0
20220524192604 76 0 0.0 4.0 0.00 0.22 0.22 84 1008.1
20220524192504 76 0 0.0 4.0 0.00 0.22 0.22 84 1008.1
20220524192404 76 0 0.0 4.0 0.00 0.22 0.22 84 1008.0
20220524192304 76 0 0.0 4.0 0.00 0.22 0.22 84 1008.1
20220524192204 76 0 0.0 5.0 0.00 0.22 0.22 84 1008.1
20220524192109 76 0 0.0 5.0 0.00 0.22 0.22 84 1008.1
20220524192016 76 0 2.0 6.0 0.00 0.22 0.22 84 1008.0
20220524191903 76 0 2.0 6.0 0.00 0.22 0.22 84 1008.1
20220524191806 76 0 1.0 6.0 0.00 0.22 0.22 84 1008.0
20220524191706 76 0 2.0 6.0 0.00 0.22 0.22 83 1008.0
20220524191605 76 0 2.0 6.0 0.00 0.22 0.22 83 1008.1
20220524191504 76 0 4.0 6.0 0.00 0.22 0.22 83 1008.0
20220524191404 76 0 4.0 6.0 0.00 0.22 0.22 83 1008.1
20220524191307 76 0 3.0 6.0 0.00 0.22 0.22 83 1008.1
20220524191204 76 0 2.0 5.0 0.00 0.22 0.22 84 1008.0
20220524191104 76 0 1.0 5.0 0.00 0.22 0.22 84 1008.0
20220524191004 76 0 2.0 5.0 0.00 0.22 0.22 84 1008.0
20220524190905 76 0 1.0 5.0 0.00 0.22 0.22 84 1008.0
20220524190804 76 0 1.0 5.0 0.00 0.22 0.22 84 1007.9
20220524190705 76 0 1.0 5.0 0.00 0.22 0.22 85 1008.0
20220524190605 76 0 1.0 5.0 0.00 0.22 0.22 84 1008.0
20220524190506 76 0 2.0 5.0 0.00 0.22 0.22 84 1008.0
20220524190405 76 0 2.0 5.0 0.00 0.22 0.22 84 1008.0
20220524190306 76 0 2.0 5.0 0.00 0.22 0.22 84 1008.0
20220524190205 76 0 2.0 5.0 0.00 0.22 0.22 84 1008.0
20220524190104 76 0 2.0 5.0 0.00 0.22 0.22 85 1007.9
20220524190007 76 0 2.0 5.0 0.00 0.22 0.22 84 1008.0
20220524185904 76 0 2.0 5.0 0.00 0.22 0.22 84 1008.0
20220524185804 76 0 3.0 5.0 0.00 0.22 0.22 83 1007.9
20220524185706 76 0 3.0 5.0 0.00 0.22 0.22 84 1008.0
20220524185604 76 0 3.0 6.0 0.00 0.22 0.22 84 1008.0
20220524185504 76 0 3.0 6.0 0.00 0.22 0.22 84 1008.1
20220524185405 76 0 2.0 6.0 0.00 0.22 0.22 85 1008.1
20220524185305 76 0 2.0 6.0 0.00 0.22 0.22 84 1008.1
20220524185204 76 0 1.0 6.0 0.00 0.22 0.22 84 1008.0
20220524185104 76 0 0.0 6.0 0.00 0.22 0.22 85 1008.0
20220524185006 76 0 1.0 6.0 0.00 0.22 0.22 85 1008.0
20220524184903 75 0 2.0 6.0 0.00 0.22 0.22 84 1008.0
20220524184805 75 0 3.0 5.0 0.00 0.22 0.22 84 1008.1
20220524184705 75 0 2.0 4.0 0.00 0.22 0.22 84 1008.0
20220524184608 75 0 2.0 4.0 0.00 0.22 0.22 84 1008.1
20220524184506 75 0 2.0 4.0 0.00 0.22 0.22 85 1008.1
20220524184404 75 0 2.0 4.0 0.00 0.22 0.22 86 1008.1
20220524184306 75 0 2.0 4.0 0.00 0.22 0.22 85 1008.1
20220524184208 75 0 2.0 4.0 0.00 0.22 0.22 85 1008.1
20220524184104 75 0 2.0 4.0 0.00 0.22 0.22 85 1008.0
20220524184006 75 0 2.0 4.0 0.00 0.22 0.22 85 1007.9